Wetterdaten: Donnerstag, 11.04.2019
Datum Zeit Temp. Aussen Temp. o. S. +5cm Feuchte Auss Luftdruck Regen Sonnenschein Regendauer Solar Windben Empfang
11.04.2019 00:00 5,9 C 5,0 C 4,4 C 65 % 1017,7 hPa 0,0 l/m 0 min 0 min 0 W/m 6,4 km/h (2 Bft) 95,74 %
11.04.2019 00:02 5,9 C 5,0 C 4,4 C 65 % 1017,6 hPa 0,0 l/m 0 min 0 min 0 W/m 9,7 km/h (2 Bft) 95,12 %
11.04.2019 00:04 5,9 C 5,0 C 4,4 C 65 % 1017,7 hPa 0,0 l/m 0 min 0 min 0 W/m 6,4 km/h (2 Bft) 97,83 %
11.04.2019 00:08 5,8 C 4,4 C 3,9 C 65 % 1017,6 hPa 0,0 l/m 0 min 0 min 0 W/m 6,4 km/h (2 Bft) 98,94 %
11.04.2019 00:10 5,8 C 4,4 C 3,9 C 66 % 1017,6 hPa 0,0 l/m 0 min 0 min 0 W/m 6,4 km/h (2 Bft) 95,74 %
11.04.2019 00:12 5,8 C 5,0 C 3,9 C 66 % 1017,6 hPa 0,0 l/m 0 min 0 min 0 W/m 9,7 km/h (2 Bft) 97,87 %
11.04.2019 00:14 5,8 C 4,4 C 3,9 C 66 % 1017,7 hPa 0,0 l/m 0 min 0 min 0 W/m 6,4 km/h (2 Bft) 97,87 %
11.04.2019 00:16 5,7 C 4,4 C 3,9 C 66 % 1017,6 hPa 0,0 l/m 0 min 0 min 0 W/m 9,7 km/h (2 Bft) 97,83 %
11.04.2019 00:18 5,7 C 4,4 C 3,9 C 66 % 1017,7 hPa 0,0 l/m 0 min 0 min 0 W/m 6,4 km/h (2 Bft) 97,87 %
11.04.2019 00:20 5,7 C 4,4 C 3,9 C 66 % 1017,7 hPa 0,0 l/m 0 min 0 min 0 W/m 6,4 km/h (2 Bft) 97,87 %
11.04.2019 00:22 5,7 C 4,4 C 3,9 C 66 % 1017,7 hPa 0,0 l/m 0 min 0 min 0 W/m 6,4 km/h (2 Bft) 97,87 %
11.04.2019 00:24 5,6 C 4,4 C 3,9 C 66 % 1017,7 hPa 0,0 l/m 0 min 0 min 0 W/m 6,4 km/h (2 Bft) 97,87 %
11.04.2019 00:26 5,6 C 4,4 C 3,9 C 66 % 1017,6 hPa 0,0 l/m 0 min 0 min 0 W/m 6,4 km/h (2 Bft) 95,74 %
11.04.2019 00:28 5,6 C 4,4 C 3,9 C 66 % 1017,7 hPa 0,0 l/m 0 min 0 min 0 W/m 9,7 km/h (2 Bft) 97,83 %
11.04.2019 00:30 5,6 C 4,4 C 3,9 C 66 % 1017,7 hPa 0,0 l/m 0 min 0 min 0 W/m 9,7 km/h (2 Bft) 95,74 %
11.04.2019 00:32 5,5 C 4,4 C 3,9 C 66 % 1017,7 hPa 0,0 l/m 0 min 0 min 0 W/m 6,4 km/h (2 Bft) 93,48 %
11.04.2019 00:34 5,5 C 4,4 C 3,9 C 66 % 1017,7 hPa 0,0 l/m 0 min 0 min 0 W/m 9,7 km/h (2 Bft) 93,62 %
11.04.2019 00:36 5,5 C 4,4 C 3,9 C 66 % 1017,7 hPa 0,0 l/m 0 min 0 min 0 W/m 12,9 km/h (3 Bft) 95,74 %
11.04.2019 00:38 5,4 C 4,4 C 3,9 C 66 % 1017,8 hPa 0,0 l/m 0 min 0 min 0 W/m 12,9 km/h (3 Bft) 95,74 %
11.04.2019 00:40 5,4 C 4,4 C 3,9 C 66 % 1017,7 hPa 0,0 l/m 0 min 0 min 0 W/m 6,4 km/h (2 Bft) 95,65 %
11.04.2019 00:42 5,4 C 4,4 C 3,9 C 67 % 1017,7 hPa 0,0 l/m 0 min 0 min 0 W/m 6,4 km/h (2 Bft) 93,62 %
11.04.2019 00:44 5,4 C 4,4 C 3,9 C 67 % 1017,8 hPa 0,0 l/m 0 min 0 min 0 W/m 6,4 km/h (2 Bft) 97,87 %
11.04.2019 00:46 5,4 C 4,4 C 3,3 C 67 % 1017,8 hPa 0,0 l/m 0 min 0 min 0 W/m 6,4 km/h (2 Bft) 97,87 %
11.04.2019 00:48 5,3 C 4,4 C 3,3 C 67 % 1017,7 hPa 0,0 l/m 0 min 0 min 0 W/m 9,7 km/h (2 Bft) 97,87 %
11.04.2019 00:50 5,3 C 3,9 C 3,3 C 67 % 1017,8 hPa 0,0 l/m 0 min 0 min 0 W/m 9,7 km/h (2 Bft) 97,87 %
11.04.2019 00:52 5,3 C 3,9 C 3,3 C 67 % 1017,8 hPa 0,0 l/m 0 min 0 min 0 W/m 12,9 km/h (3 Bft) 95,65 %
11.04.2019 00:54 5,3 C 4,4 C 3,9 C 67 % 1017,8 hPa 0,0 l/m 0 min 0 min 0 W/m 6,4 km/h (2 Bft) 97,87 %
11.04.2019 00:56 5,2 C 3,9 C 3,3 C 67 % 1017,8 hPa 0,0 l/m 0 min 0 min 0 W/m 3,2 km/h (1 Bft) 97,87 %
11.04.2019 00:58 5,2 C 3,9 C 3,9 C 67 % 1017,8 hPa 0,0 l/m 0 min 0 min 0 W/m 9,7 km/h (2 Bft) 97,87 %
11.04.2019 01:00 5,2 C 3,9 C 3,3 C 67 % 1017,9 hPa 0,0 l/m 0 min 0 min 0 W/m 6,4 km/h (2 Bft) 97,87 %
11.04.2019 01:02 5,2 C 3,9 C 3,3 C 67 % 1017,9 hPa 0,0 l/m 0 min 0 min 0 W/m 6,4 km/h (2 Bft) 97,83 %
11.04.2019 01:04 5,1 C 3,9 C 3,3 C 67 % 1017,9 hPa 0,0 l/m 0 min 0 min 0 W/m 6,4 km/h (2 Bft) 97,87 %
11.04.2019 01:06 5,1 C 3,9 C 3,3 C 67 % 1017,8 hPa 0,0 l/m 0 min 0 min 0 W/m 9,7 km/h (2 Bft) 97,87 %
11.04.2019 01:08 5,1 C 3,9 C 3,3 C 68 % 1017,8 hPa 0,0 l/m 0 min 0 min 0 W/m 9,7 km/h (2 Bft) 97,87 %
11.04.2019 01:10 5,0 C 3,9 C 3,3 C 68 % 1017,9 hPa 0,0 l/m 0 min 0 min 0 W/m 3,2 km/h (1 Bft) 95,74 %
11.04.2019 01:12 5,0 C 3,9 C 3,3 C 68 % 1017,9 hPa 0,0 l/m 0 min 0 min 0 W/m 6,4 km/h (2 Bft) 97,87 %
11.04.2019 01:14 5,0 C 3,9 C 3,3 C 68 % 1017,9 hPa 0,0 l/m 0 min 0 min 0 W/m 3,2 km/h (1 Bft) 97,83 %
11.04.2019 01:16 4,9 C 3,9 C 3,3 C 68 % 1018,0 hPa 0,0 l/m 0 min 0 min 0 W/m 3,2 km/h (1 Bft) 97,87 %
11.04.2019 01:18 4,9 C 3,3 C 2,8 C 68 % 1018,0 hPa 0,0 l/m 0 min 0 min 0 W/m 3,2 km/h (1 Bft) 97,87 %
11.04.2019 01:20 4,9 C 3,3 C 2,8 C 68 % 1017,9 hPa 0,0 l/m 0 min 0 min 0 W/m 3,2 km/h (1 Bft) 97,87 %
11.04.2019 01:22 4,9 C 3,3 C 2,8 C 68 % 1017,9 hPa 0,0 l/m 0 min 0 min 0 W/m 3,2 km/h (1 Bft) 97,87 %
11.04.2019 01:24 4,8 C 3,3 C 2,8 C 68 % 1017,9 hPa 0,0 l/m 0 min 0 min 0 W/m 3,2 km/h (1 Bft) 100,00 %
11.04.2019 01:26 4,8 C 3,3 C 2,2 C 68 % 1017,9 hPa 0,0 l/m 0 min 0 min 0 W/m 6,4 km/h (2 Bft) 100,00 %
11.04.2019 01:28 4,8 C 3,3 C 2,2 C 68 % 1018,0 hPa 0,0 l/m 0 min 0 min 0 W/m 9,7 km/h (2 Bft) 97,87 %
11.04.2019 01:30 4,7 C 2,8 C 2,2 C 68 % 1018,0 hPa 0,0 l/m 0 min 0 min 0 W/m 6,4 km/h (2 Bft) 100,00 %
11.04.2019 01:32 4,7 C 2,8 C 2,2 C 68 % 1018,0 hPa 0,0 l/m 0 min 0 min 0 W/m 3,2 km/h (1 Bft) 100,00 %
11.04.2019 01:34 4,7 C 2,8 C 2,2 C 68 % 1017,9 hPa 0,0 l/m 0 min 0 min 0 W/m 6,4 km/h (2 Bft) 100,00 %
11.04.2019 01:36 4,6 C 2,8 C 2,2 C 69 % 1018,0 hPa 0,0 l/m 0 min 0 min 0 W/m 6,4 km/h (2 Bft) 97,87 %
11.04.2019 01:38 4,6 C 2,8 C 2,2 C 69 % 1017,9 hPa 0,0 l/m 0 min 0 min 0 W/m 6,4 km/h (2 Bft) 100,00 %
11.04.2019 01:40 4,5 C 2,8 C 2,2 C 69 % 1017,9 hPa 0,0 l/m 0 min 0 min 0 W/m 9,7 km/h (2 Bft) 100,00 %
11.04.2019 01:42 4,4 C 2,8 C 2,2 C 69 % 1017,9 hPa 0,0 l/m 0 min 0 min 0 W/m 6,4 km/h (2 Bft) 100,00 %
11.04.2019 01:44 4,4 C 2,8 C 2,2 C 69 % 1017,9 hPa 0,0 l/m 0 min 0 min 0 W/m 6,4 km/h (2 Bft) 100,00 %
11.04.2019 01:46 4,4 C 2,8 C 2,2 C 69 % 1018,0 hPa 0,0 l/m 0 min 0 min 0 W/m 6,4 km/h (2 Bft) 97,87 %
11.04.2019 01:48 4,3 C 2,8 C 2,2 C 70 % 1018,0 hPa 0,0 l/m 0 min 0 min 0 W/m 6,4 km/h (2 Bft) 100,00 %
11.04.2019 01:50 4,3 C 2,8 C 2,2 C 70 % 1018,0 hPa 0,0 l/m 0 min 0 min 0 W/m 9,7 km/h (2 Bft) 97,83 %
11.04.2019 01:52 4,2 C 2,8 C 2,2 C 70 % 1018,0 hPa 0,0 l/m 0 min 0 min 0 W/m 9,7 km/h (2 Bft) 97,87 %
11.04.2019 01:54 4,2 C 2,8 C 2,2 C 71 % 1018,0 hPa 0,0 l/m 0 min 0 min 0 W/m 6,4 km/h (2 Bft) 100,00 %
11.04.2019 01:56 4,2 C 2,8 C 2,2 C 71 % 1018,0 hPa 0,0 l/m 0 min 0 min 0 W/m 9,7 km/h (2 Bft) 100,00 %
11.04.2019 01:58 4,1 C 2,8 C 2,2 C 71 % 1018,0 hPa 0,0 l/m 0 min 0 min 0 W/m 3,2 km/h (1 Bft) 100,00 %
11.04.2019 02:00 4,1 C 2,8 C 2,2 C 71 % 1018,0 hPa 0,0 l/m 0 min 0 min 0 W/m 3,2 km/h (1 Bft) 97,83 %
11.04.2019 02:02 4,1 C 2,8 C 2,2 C 71 % 1018,1 hPa 0,0 l/m 0 min 0 min 0 W/m 9,7 km/h (2 Bft) 97,87 %
11.04.2019 02:04 4,0 C 2,8 C 2,2 C 71 % 1018,0 hPa 0,0 l/m 0 min 0 min 0 W/m 3,2 km/h (1 Bft) 97,87 %
11.04.2019 02:06 3,9 C 2,8 C 2,2 C 71 % 1018,0 hPa 0,0 l/m 0 min 0 min 0 W/m 6,4 km/h (2 Bft) 97,87 %
11.04.2019 02:08 3,9 C 2,8 C 2,2 C 72 % 1018,1 hPa 0,0 l/m 0 min 0 min 0 W/m 3,2 km/h (1 Bft) 97,87 %
11.04.2019 02:10 3,9 C 2,8 C 2,2 C 72 % 1018,0 hPa 0,0 l/m 0 min 0 min 0 W/m 6,4 km/h (2 Bft) 95,74 %
11.04.2019 02:12 3,9 C 2,8 C 2,2 C 72 % 1018,1 hPa 0,0 l/m 0 min 0 min 0 W/m 6,4 km/h (2 Bft) 95,65 %
11.04.2019 02:14 3,8 C 2,8 C 2,2 C 72 % 1018,1 hPa 0,0 l/m 0 min 0 min 0 W/m 6,4 km/h (2 Bft) 97,87 %
11.04.2019 02:16 3,8 C 2,8 C 2,2 C 72 % 1018,1 hPa 0,0 l/m 0 min 0 min 0 W/m 9,7 km/h (2 Bft) 97,87 %
11.04.2019 02:18 3,8 C 2,8 C 2,2 C 72 % 1018,1 hPa 0,0 l/m 0 min 0 min 0 W/m 9,7 km/h (2 Bft) 95,74 %
11.04.2019 02:20 3,7 C 2,8 C 2,2 C 72 % 1018,1 hPa 0,0 l/m 0 min 0 min 0 W/m 6,4 km/h (2 Bft) 97,87 %
11.04.2019 02:22 3,7 C 2,8 C 2,2 C 73 % 1018,1 hPa 0,0 l/m 0 min 0 min 0 W/m 6,4 km/h (2 Bft) 97,87 %
11.04.2019 02:24 3,7 C 2,2 C 1,7 C 73 % 1018,1 hPa 0,0 l/m 0 min 0 min 0 W/m 12,9 km/h (3 Bft) 97,83 %
11.04.2019 02:26 3,7 C 2,2 C 1,7 C 73 % 1018,1 hPa 0,0 l/m 0 min 0 min 0 W/m 6,4 km/h (2 Bft) 97,87 %
11.04.2019 02:28 3,6 C 2,2 C 2,2 C 73 % 1018,0 hPa 0,0 l/m 0 min 0 min 0 W/m 6,4 km/h (2 Bft) 97,87 %
11.04.2019 02:30 3,6 C 2,8 C 2,2 C 73 % 1018,1 hPa 0,0 l/m 0 min 0 min 0 W/m 6,4 km/h (2 Bft) 100,00 %
11.04.2019 02:32 3,6 C 2,8 C 2,2 C 74 % 1018,1 hPa 0,0 l/m 0 min 0 min 0 W/m 12,9 km/h (3 Bft) 100,00 %
11.04.2019 02:34 3,6 C 2,8 C 2,2 C 74 % 1018,1 hPa 0,0 l/m 0 min 0 min 0 W/m 6,4 km/h (2 Bft) 100,00 %
11.04.2019 02:36 3,5 C 2,8 C 2,2 C 74 % 1018,1 hPa 0,0 l/m 0 min 0 min 0 W/m 6,4 km/h (2 Bft) 100,00 %
11.04.2019 02:38 3,5 C 2,8 C 2,2 C 74 % 1018,0 hPa 0,0 l/m 0 min 0 min 0 W/m 12,9 km/h (3 Bft) 100,00 %
11.04.2019 02:40 3,5 C 2,2 C 2,2 C 74 % 1018,0 hPa 0,0 l/m 0 min 0 min 0 W/m 6,4 km/h (2 Bft) 100,00 %
11.04.2019 02:42 3,4 C 2,2 C 2,2 C 74 % 1018,1 hPa 0,0 l/m 0 min 0 min 0 W/m 6,4 km/h (2 Bft) 100,00 %
11.04.2019 02:44 3,4 C 2,2 C 2,2 C 74 % 1018,1 hPa 0,0 l/m 0 min 0 min 0 W/m 6,4 km/h (2 Bft) 100,00 %
11.04.2019 02:46 3,4 C 2,2 C 1,7 C 74 % 1018,1 hPa 0,0 l/m 0 min 0 min 0 W/m 6,4 km/h (2 Bft) 100,00 %
11.04.2019 02:48 3,4 C 2,2 C 1,7 C 74 % 1018,1 hPa 0,0 l/m 0 min 0 min 0 W/m 3,2 km/h (1 Bft) 100,00 %
11.04.2019 02:50 3,4 C 2,2 C 1,7 C 74 % 1018,2 hPa 0,0 l/m 0 min 0 min 0 W/m 6,4 km/h (2 Bft) 100,00 %
11.04.2019 02:52 3,3 C 2,2 C 1,7 C 74 % 1018,2 hPa 0,0 l/m 0 min 0 min 0 W/m 9,7 km/h (2 Bft) 100,00 %
11.04.2019 02:54 3,3 C 2,2 C 1,7 C 74 % 1018,2 hPa 0,0 l/m 0 min 0 min 0 W/m 6,4 km/h (2 Bft) 100,00 %
11.04.2019 02:56 3,3 C 2,2 C 1,7 C 75 % 1018,2 hPa 0,0 l/m 0 min 0 min 0 W/m 6,4 km/h (2 Bft) 97,87 %
11.04.2019 02:58 3,3 C 2,2 C 1,7 C 75 % 1018,2 hPa 0,0 l/m 0 min 0 min 0 W/m 9,7 km/h (2 Bft) 100,00 %
11.04.2019 03:00 3,3 C 2,2 C 1,7 C 75 % 1018,2 hPa 0,0 l/m 0 min 0 min 0 W/m 6,4 km/h (2 Bft) 97,87 %
11.04.2019 03:02 3,2 C 2,2 C 1,7 C 75 % 1018,2 hPa 0,0 l/m 0 min 0 min 0 W/m 6,4 km/h (2 Bft) 97,87 %
11.04.2019 03:04 3,2 C 2,2 C 1,7 C 75 % 1018,2 hPa 0,0 l/m 0 min 0 min 0 W/m 3,2 km/h (1 Bft) 97,87 %
11.04.2019 03:06 3,2 C 2,2 C 1,7 C 75 % 1018,3 hPa 0,0 l/m 0 min 0 min 0 W/m 6,4 km/h (2 Bft) 97,87 %
11.04.2019 03:08 3,2 C 2,2 C 1,7 C 75 % 1018,2 hPa 0,0 l/m 0 min 0 min 0 W/m 12,9 km/h (3 Bft) 97,87 %
11.04.2019 03:10 3,2 C 2,2 C 1,7 C 75 % 1018,2 hPa 0,0 l/m 0 min 0 min 0 W/m 6,4 km/h (2 Bft) 97,83 %
11.04.2019 03:12 3,2 C 2,2 C 1,7 C 75 % 1018,2 hPa 0,0 l/m 0 min 0 min 0 W/m 9,7 km/h (2 Bft) 97,87 %
11.04.2019 03:14 3,1 C 2,2 C 1,7 C 75 % 1018,3 hPa 0,0 l/m 0 min 0 min 0 W/m 9,7 km/h (2 Bft) 97,87 %
11.04.2019 03:16 3,1 C 2,2 C 1,7 C 75 % 1018,2 hPa 0,0 l/m 0 min 0 min 0 W/m 3,2 km/h (1 Bft) 97,87 %
11.04.2019 03:18 3,1 C 2,2 C 1,7 C 75 % 1018,2 hPa 0,0 l/m 0 min 0 min 0 W/m 9,7 km/h (2 Bft) 97,87 %
11.04.2019 03:20 3,1 C 1,7 C 1,7 C 75 % 1018,2 hPa 0,0 l/m 0 min 0 min 0 W/m 9,7 km/h (2 Bft) 97,87 %
11.04.2019 03:22 3,0 C 1,7 C 1,7 C 76 % 1018,3 hPa 0,0 l/m 0 min 0 min 0 W/m 6,4 km/h (2 Bft) 97,83 %
11.04.2019 03:24 3,0 C 1,7 C 1,7 C 76 % 1018,3 hPa 0,0 l/m 0 min 0 min 0 W/m 6,4 km/h (2 Bft) 97,87 %
11.04.2019 03:26 3,0 C 1,7 C 1,7 C 76 % 1018,3 hPa 0,0 l/m 0 min 0 min 0 W/m 6,4 km/h (2 Bft) 95,74 %
11.04.2019 03:28 2,9 C 1,7 C 1,1 C 76 % 1018,2 hPa 0,0 l/m 0 min 0 min 0 W/m 6,4 km/h (2 Bft) 97,87 %
11.04.2019 03:30 2,9 C 1,7 C 1,1 C 76 % 1018,2 hPa 0,0 l/m 0 min 0 min 0 W/m 9,7 km/h (2 Bft) 95,74 %
11.04.2019 03:32 2,9 C 1,7 C 1,7 C 76 % 1018,3 hPa 0,0 l/m 0 min 0 min 0 W/m 12,9 km/h (3 Bft) 95,74 %
11.04.2019 03:34 2,9 C 1,7 C 1,7 C 76 % 1018,2 hPa 0,0 l/m 0 min 0 min 0 W/m 6,4 km/h (2 Bft) 95,65 %
11.04.2019 03:36 2,9 C 1,7 C 1,1 C 76 % 1018,3 hPa 0,0 l/m 0 min 0 min 0 W/m 12,9 km/h (3 Bft) 97,87 %
11.04.2019 03:38 2,8 C 1,7 C 1,1 C 76 % 1018,3 hPa 0,0 l/m 0 min 0 min 0 W/m 6,4 km/h (2 Bft) 100,00 %
11.04.2019 03:40 2,8 C 1,7 C 1,1 C 76 % 1018,3 hPa 0,0 l/m 0 min 0 min 0 W/m 9,7 km/h (2 Bft) 95,74 %
11.04.2019 03:42 2,8 C 1,7 C 1,1 C 77 % 1018,3 hPa 0,0 l/m 0 min 0 min 0 W/m 6,4 km/h (2 Bft) 93,62 %
11.04.2019 03:44 2,8 C 1,7 C 1,1 C 77 % 1018,3 hPa 0,0 l/m 0 min 0 min 0 W/m 6,4 km/h (2 Bft) 93,62 %
11.04.2019 03:46 2,8 C 1,7 C 1,1 C 77 % 1018,3 hPa 0,0 l/m 0 min 0 min 0 W/m 6,4 km/h (2 Bft) 93,48 %
11.04.2019 03:48 2,7 C 1,7 C 1,1 C 77 % 1018,3 hPa 0,0 l/m 0 min 0 min 0 W/m 9,7 km/h (2 Bft) 93,62 %
11.04.2019 03:50 2,7 C 1,7 C 1,1 C 77 % 1018,3 hPa 0,0 l/m 0 min 0 min 0 W/m 6,4 km/h (2 Bft) 93,62 %
11.04.2019 03:52 2,7 C 1,7 C 1,1 C 77 % 1018,3 hPa 0,0 l/m 0 min 0 min 0 W/m 9,7 km/h (2 Bft) 93,62 %
11.04.2019 03:54 2,7 C 1,7 C 1,1 C 77 % 1018,3 hPa 0,0 l/m 0 min 0 min 0 W/m 6,4 km/h (2 Bft) 91,49 %
11.04.2019 03:56 2,7 C 1,7 C 1,1 C 77 % 1018,3 hPa 0,0 l/m 0 min 0 min 0 W/m 9,7 km/h (2 Bft) 91,49 %
11.04.2019 03:58 2,7 C 1,7 C 1,1 C 78 % 1018,3 hPa 0,0 l/m 0 min 0 min 0 W/m 9,7 km/h (2 Bft) 93,48 %
11.04.2019 04:00 2,6 C 1,7 C 1,1 C 78 % 1018,3 hPa 0,0 l/m 0 min 0 min 0 W/m 6,4 km/h (2 Bft) 91,49 %
11.04.2019 04:05 2,6 C 1,7 C 1,1 C 78 % 1018,4 hPa 0,0 l/m 0 min 0 min 0 W/m 9,7 km/h (2 Bft) 90,91 %
11.04.2019 04:06 2,6 C 1,7 C 1,1 C 78 % 1018,4 hPa 0,0 l/m 0 min 0 min 0 W/m 3,2 km/h (1 Bft) 88,89 %
11.04.2019 04:08 2,6 C 1,7 C 1,1 C 78 % 1018,4 hPa 0,0 l/m 0 min 0 min 0 W/m 3,2 km/h (1 Bft) 93,48 %
11.04.2019 04:10 2,6 C 1,7 C 1,1 C 78 % 1018,4 hPa 0,0 l/m 0 min 0 min 0 W/m 6,4 km/h (2 Bft) 93,62 %
11.04.2019 04:12 2,5 C 1,7 C 1,1 C 78 % 1018,5 hPa 0,0 l/m 0 min 0 min 0 W/m 6,4 km/h (2 Bft) 93,62 %
11.04.2019 04:14 2,5 C 1,7 C 1,1 C 78 % 1018,5 hPa 0,0 l/m 0 min 0 min 0 W/m 6,4 km/h (2 Bft) 95,74 %
11.04.2019 04:16 2,5 C 1,1 C 1,1 C 78 % 1018,5 hPa 0,0 l/m 0 min 0 min 0 W/m 6,4 km/h (2 Bft) 97,87 %
11.04.2019 04:18 2,4 C 1,7 C 1,1 C 78 % 1018,5 hPa 0,0 l/m 0 min 0 min 0 W/m 6,4 km/h (2 Bft) 97,87 %
11.04.2019 04:20 2,4 C 1,1 C 1,1 C 78 % 1018,5 hPa 0,0 l/m 0 min 0 min 0 W/m 6,4 km/h (2 Bft) 95,65 %
11.04.2019 04:22 2,4 C 1,1 C 1,1 C 79 % 1018,6 hPa 0,0 l/m 0 min 0 min 0 W/m 6,4 km/h (2 Bft) 95,74 %
11.04.2019 04:24 2,4 C 1,1 C 1,1 C 79 % 1018,6 hPa 0,0 l/m 0 min 0 min 0 W/m 6,4 km/h (2 Bft) 97,87 %
11.04.2019 04:26 2,4 C 1,1 C 1,1 C 78 % 1018,6 hPa 0,0 l/m 0 min 0 min 0 W/m 6,4 km/h (2 Bft) 97,87 %
11.04.2019 04:28 2,3 C 1,1 C 1,1 C 78 % 1018,6 hPa 0,0 l/m 0 min 0 min 0 W/m 6,4 km/h (2 Bft) 97,87 %
11.04.2019 04:30 2,3 C 1,1 C 1,1 C 79 % 1018,7 hPa 0,0 l/m 0 min 0 min 0 W/m 9,7 km/h (2 Bft) 97,87 %
11.04.2019 04:32 2,3 C 1,1 C 0,6 C 79 % 1018,6 hPa 0,0 l/m 0 min 0 min 0 W/m 3,2 km/h (1 Bft) 97,83 %
11.04.2019 04:34 2,3 C 1,1 C 0,6 C 79 % 1018,6 hPa 0,0 l/m 0 min 0 min 0 W/m 9,7 km/h (2 Bft) 100,00 %
11.04.2019 04:36 2,3 C 1,1 C 0,6 C 79 % 1018,6 hPa 0,0 l/m 0 min 0 min 0 W/m 9,7 km/h (2 Bft) 93,62 %
11.04.2019 04:38 2,3 C 1,1 C 0,6 C 79 % 1018,6 hPa 0,0 l/m 0 min 0 min 0 W/m 6,4 km/h (2 Bft) 100,00 %
11.04.2019 04:40 2,2 C 1,1 C 0,6 C 79 % 1018,7 hPa 0,0 l/m 0 min 0 min 0 W/m 6,4 km/h (2 Bft) 97,87 %
11.04.2019 04:42 2,2 C 1,1 C 0,6 C 79 % 1018,6 hPa 0,0 l/m 0 min 0 min 0 W/m 6,4 km/h (2 Bft) 97,87 %
11.04.2019 04:44 2,2 C 1,1 C 0,6 C 79 % 1018,7 hPa 0,0 l/m 0 min 0 min 0 W/m 6,4 km/h (2 Bft) 97,83 %
11.04.2019 04:46 2,2 C 1,1 C 0,6 C 79 % 1018,6 hPa 0,0 l/m 0 min 0 min 0 W/m 6,4 km/h (2 Bft) 100,00 %
11.04.2019 04:48 2,2 C 1,1 C 0,6 C 79 % 1018,6 hPa 0,0 l/m 0 min 0 min 0 W/m 9,7 km/h (2 Bft) 100,00 %
11.04.2019 04:50 2,1 C 1,1 C 0,6 C 79 % 1018,6 hPa 0,0 l/m 0 min 0 min 0 W/m 6,4 km/h (2 Bft) 100,00 %
11.04.2019 04:52 2,1 C 1,1 C 0,6 C 79 % 1018,6 hPa 0,0 l/m 0 min 0 min 0 W/m 6,4 km/h (2 Bft) 100,00 %
11.04.2019 04:54 2,1 C 1,1 C 0,6 C 79 % 1018,6 hPa 0,0 l/m 0 min 0 min 0 W/m 0,0 km/h (0 Bft) 97,87 %
11.04.2019 04:56 2,1 C 0,6 C 0,6 C 79 % 1018,6 hPa 0,0 l/m 0 min 0 min 0 W/m 0,0 km/h (0 Bft) 100,00 %
11.04.2019 04:58 2,0 C 0,6 C 0,6 C 79 % 1018,6 hPa 0,0 l/m 0 min 0 min 0 W/m 3,2 km/h (1 Bft) 100,00 %
11.04.2019 05:00 2,0 C 0,6 C 0,6 C 79 % 1018,6 hPa 0,0 l/m 0 min 0 min 0 W/m 3,2 km/h (1 Bft) 97,87 %
11.04.2019 05:02 1,9 C 0,6 C 0,6 C 79 % 1018,7 hPa 0,0 l/m 0 min 0 min 0 W/m 6,4 km/h (2 Bft) 100,00 %
11.04.2019 05:04 1,9 C 0,6 C 0,6 C 79 % 1018,7 hPa 0,0 l/m 0 min 0 min 0 W/m 0,0 km/h (0 Bft) 97,87 %
11.04.2019 05:05 1,9 C 0,6 C 0,0 C 79 % 1018,7 hPa 0,0 l/m 0 min 0 min 0 W/m 6,4 km/h (2 Bft) 100,00 %
11.04.2019 05:10 1,9 C 0,6 C 0,0 C 80 % 1018,7 hPa 0,0 l/m 0 min 0 min 0 W/m 0,0 km/h (0 Bft) 100,00 %
11.04.2019 05:12 1,8 C 0,6 C 0,0 C 80 % 1018,6 hPa 0,0 l/m 0 min 0 min 0 W/m 6,4 km/h (2 Bft) 100,00 %
11.04.2019 05:14 1,8 C 0,6 C 0,0 C 80 % 1018,7 hPa 0,0 l/m 0 min 0 min 0 W/m 3,2 km/h (1 Bft) 100,00 %
11.04.2019 05:19 1,7 C 0,6 C 0,0 C 80 % 1018,7 hPa 0,0 l/m 0 min 0 min 0 W/m 6,4 km/h (2 Bft) 98,51 %
11.04.2019 05:20 1,7 C 0,6 C 0,0 C 80 % 1018,7 hPa 0,0 l/m 0 min 0 min 0 W/m 3,2 km/h (1 Bft) 91,67 %
11.04.2019 05:22 1,7 C 0,6 C 0,0 C 80 % 1018,7 hPa 0,0 l/m 0 min 0 min 0 W/m 6,4 km/h (2 Bft) 97,87 %
11.04.2019 05:24 1,7 C 0,6 C 0,0 C 80 % 1018,7 hPa 0,0 l/m 0 min 0 min 0 W/m 6,4 km/h (2 Bft) 100,00 %
11.04.2019 05:26 1,7 C 0,6 C 0,0 C 80 % 1018,8 hPa 0,0 l/m 0 min 0 min 0 W/m 3,2 km/h (1 Bft) 100,00 %
11.04.2019 05:28 1,7 C 0,6 C 0,0 C 80 % 1018,8 hPa 0,0 l/m 0 min 0 min 0 W/m 3,2 km/h (1 Bft) 100,00 %
11.04.2019 05:30 1,6 C 0,6 C 0,0 C 80 % 1018,9 hPa 0,0 l/m 0 min 0 min 0 W/m 6,4 km/h (2 Bft) 97,96 %
11.04.2019 05:32 1,6 C 0,6 C 0,0 C 80 % 1018,8 hPa 0,0 l/m 0 min 0 min 0 W/m 3,2 km/h (1 Bft) 97,87 %
11.04.2019 05:34 1,6 C 0,6 C 0,0 C 80 % 1018,8 hPa 0,0 l/m 0 min 0 min 0 W/m 3,2 km/h (1 Bft) 97,62 %
11.04.2019 05:36 1,6 C 0,6 C 0,0 C 80 % 1018,9 hPa 0,0 l/m 0 min 0 min 0 W/m 3,2 km/h (1 Bft) 98,28 %
11.04.2019 05:38 1,5 C 0,0 C -0,6 C 80 % 1019,0 hPa 0,0 l/m 0 min 0 min 0 W/m 3,2 km/h (1 Bft) 97,30 %
11.04.2019 05:40 1,5 C 0,0 C -0,6 C 80 % 1018,9 hPa 0,0 l/m 0 min 0 min 0 W/m 3,2 km/h (1 Bft) 97,96 %
11.04.2019 05:42 1,4 C 0,0 C -0,6 C 80 % 1018,9 hPa 0,0 l/m 0 min 0 min 0 W/m 3,2 km/h (1 Bft) 93,88 %
11.04.2019 05:44 1,4 C 0,0 C 0,0 C 80 % 1018,9 hPa 0,0 l/m 0 min 0 min 0 W/m 3,2 km/h (1 Bft) 97,83 %
11.04.2019 05:46 1,4 C 0,6 C 0,0 C 80 % 1018,9 hPa 0,0 l/m 0 min 0 min 0 W/m 3,2 km/h (1 Bft) 95,74 %
11.04.2019 05:48 1,4 C 0,0 C 0,0 C 81 % 1018,9 hPa 0,0 l/m 0 min 0 min 0 W/m 6,4 km/h (2 Bft) 97,87 %
11.04.2019 05:50 1,4 C 0,0 C 0,0 C 81 % 1018,9 hPa 0,0 l/m 0 min 0 min 0 W/m 3,2 km/h (1 Bft) 95,24 %
11.04.2019 05:52 1,4 C 0,6 C 0,0 C 81 % 1019,0 hPa 0,0 l/m 0 min 0 min 0 W/m 3,2 km/h (1 Bft) 97,87 %
11.04.2019 05:54 1,3 C 0,6 C 0,0 C 81 % 1019,0 hPa 0,0 l/m 0 min 0 min 0 W/m 6,4 km/h (2 Bft) 97,96 %
11.04.2019 05:56 1,3 C 0,0 C 0,0 C 81 % 1019,0 hPa 0,0 l/m 0 min 0 min 0 W/m 3,2 km/h (1 Bft) 95,74 %
11.04.2019 05:58 1,3 C 0,6 C 0,0 C 81 % 1019,1 hPa 0,0 l/m 0 min 0 min 0 W/m 3,2 km/h (1 Bft) 100,00 %
11.04.2019 06:00 1,3 C 0,6 C 0,0 C 81 % 1019,0 hPa 0,0 l/m 0 min 0 min 0 W/m 3,2 km/h (1 Bft) 100,00 %
11.04.2019 06:02 1,3 C 0,6 C -0,6 C 81 % 1019,0 hPa 0,0 l/m 0 min 0 min 0 W/m 3,2 km/h (1 Bft) 100,00 %
11.04.2019 06:04 1,2 C 0,0 C -0,6 C 81 % 1019,1 hPa 0,0 l/m 0 min 0 min 0 W/m 3,2 km/h (1 Bft) 97,87 %
11.04.2019 06:08 1,2 C 0,6 C 0,0 C 82 % 1019,1 hPa 0,0 l/m 0 min 0 min 0 W/m 6,4 km/h (2 Bft) 98,92 %
11.04.2019 06:10 1,2 C 0,6 C 0,0 C 81 % 1019,1 hPa 0,0 l/m 0 min 0 min 0 W/m 6,4 km/h (2 Bft) 100,00 %
11.04.2019 06:12 1,2 C 0,6 C 0,0 C 82 % 1019,1 hPa 0,0 l/m 0 min 0 min 0 W/m 3,2 km/h (1 Bft) 97,62 %
11.04.2019 06:14 1,2 C 0,6 C 0,0 C 82 % 1019,2 hPa 0,0 l/m 0 min 0 min 0 W/m 6,4 km/h (2 Bft) 100,00 %
11.04.2019 06:16 1,2 C 0,6 C 0,0 C 82 % 1019,1 hPa 0,0 l/m 0 min 0 min 0 W/m 3,2 km/h (1 Bft) 100,00 %
11.04.2019 06:18 1,2 C 0,6 C 0,0 C 82 % 1019,2 hPa 0,0 l/m 0 min 0 min 0 W/m 6,4 km/h (2 Bft) 100,00 %
11.04.2019 06:20 1,2 C 0,6 C 0,0 C 82 % 1019,2 hPa 0,0 l/m 0 min 0 min 0 W/m 3,2 km/h (1 Bft) 100,00 %
11.04.2019 06:22 1,2 C 0,6 C 0,0 C 82 % 1019,2 hPa 0,0 l/m 0 min 0 min 0 W/m 6,4 km/h (2 Bft) 97,87 %
11.04.2019 06:24 1,2 C 0,6 C 0,0 C 82 % 1019,2 hPa 0,0 l/m 0 min 0 min 0 W/m 6,4 km/h (2 Bft) 97,62 %
11.04.2019 06:26 1,1 C 0,6 C 0,0 C 82 % 1019,2 hPa 0,0 l/m 0 min 0 min 0 W/m 6,4 km/h (2 Bft) 97,96 %
11.04.2019 06:28 1,1 C 0,6 C 0,0 C 82 % 1019,2 hPa 0,0 l/m 0 min 0 min 0 W/m 6,4 km/h (2 Bft) 97,87 %
11.04.2019 06:30 1,1 C 0,6 C 0,0 C 82 % 1019,3 hPa 0,0 l/m 0 min 0 min 0 W/m 6,4 km/h (2 Bft) 97,96 %
11.04.2019 06:32 1,1 C 0,6 C 0,0 C 82 % 1019,3 hPa 0,0 l/m 0 min 0 min 0 W/m 6,4 km/h (2 Bft) 100,00 %
11.04.2019 06:34 1,1 C 0,6 C 0,0 C 83 % 1019,3 hPa 0,0 l/m 0 min 0 min 0 W/m 3,2 km/h (1 Bft) 100,00 %
11.04.2019 06:36 1,1 C 0,6 C 0,0 C 83 % 1019,4 hPa 0,0 l/m 0 min 0 min 0 W/m 6,4 km/h (2 Bft) 98,11 %
11.04.2019 06:38 1,1 C 0,6 C 0,0 C 83 % 1019,3 hPa 0,0 l/m 0 min 0 min 0 W/m 3,2 km/h (1 Bft) 100,00 %
11.04.2019 06:40 1,1 C 0,6 C 0,0 C 83 % 1019,4 hPa 0,0 l/m 0 min 0 min 0 W/m 6,4 km/h (2 Bft) 100,00 %
11.04.2019 06:42 1,1 C 0,6 C 0,0 C 83 % 1019,4 hPa 0,0 l/m 0 min 0 min 0 W/m 3,2 km/h (1 Bft) 100,00 %
11.04.2019 06:44 1,1 C 0,0 C 0,0 C 83 % 1019,4 hPa 0,0 l/m 0 min 0 min 0 W/m 6,4 km/h (2 Bft) 100,00 %
11.04.2019 06:46 1,1 C 0,0 C -0,6 C 83 % 1019,5 hPa 0,0 l/m 0 min 0 min 0 W/m 6,4 km/h (2 Bft) 97,87 %
11.04.2019 06:48 1,1 C 0,0 C 0,0 C 83 % 1019,5 hPa 0,0 l/m 0 min 0 min 0 W/m 6,4 km/h (2 Bft) 97,87 %
11.04.2019 06:50 1,1 C 0,0 C 0,0 C 83 % 1019,5 hPa 0,0 l/m 0 min 0 min 1 W/m 3,2 km/h (1 Bft) 95,12 %
11.04.2019 06:52 1,1 C 0,0 C 0,0 C 83 % 1019,5 hPa 0,0 l/m 0 min 0 min 5 W/m 9,7 km/h (2 Bft) 95,92 %
11.04.2019 06:54 1,1 C 0,0 C 0,0 C 83 % 1019,5 hPa 0,0 l/m 0 min 0 min 5 W/m 6,4 km/h (2 Bft) 97,96 %
11.04.2019 06:56 1,1 C 0,0 C 0,0 C 83 % 1019,6 hPa 0,0 l/m 0 min 0 min 6 W/m 6,4 km/h (2 Bft) 97,92 %
11.04.2019 06:58 1,1 C 0,0 C 0,0 C 83 % 1019,6 hPa 0,0 l/m 0 min 0 min 7 W/m 6,4 km/h (2 Bft) 95,74 %
11.04.2019 07:00 1,0 C 0,0 C 0,0 C 83 % 1019,6 hPa 0,0 l/m 0 min 0 min 8 W/m 3,2 km/h (1 Bft) 95,74 %
11.04.2019 07:02 1,0 C 0,0 C -0,6 C 83 % 1019,6 hPa 0,0 l/m 0 min 0 min 9 W/m 6,4 km/h (2 Bft) 95,12 %
11.04.2019 07:04 1,0 C 0,0 C 0,0 C 83 % 1019,6 hPa 0,0 l/m 0 min 0 min 11 W/m 6,4 km/h (2 Bft) 97,87 %
11.04.2019 07:06 1,0 C 0,0 C 0,0 C 83 % 1019,7 hPa 0,0 l/m 0 min 0 min 11 W/m 3,2 km/h (1 Bft) 100,00 %
11.04.2019 07:08 1,0 C 0,0 C 0,0 C 83 % 1019,7 hPa 0,0 l/m 0 min 0 min 12 W/m 6,4 km/h (2 Bft) 97,37 %
11.04.2019 07:10 0,9 C 0,6 C 0,0 C 83 % 1019,7 hPa 0,0 l/m 0 min 0 min 12 W/m 3,2 km/h (1 Bft) 93,48 %
11.04.2019 07:12 0,9 C 0,6 C 0,0 C 83 % 1019,7 hPa 0,0 l/m 0 min 0 min 13 W/m 3,2 km/h (1 Bft) 93,88 %
11.04.2019 07:22 0,9 C 0,6 C 0,0 C 83 % 1019,8 hPa 0,0 l/m 0 min 0 min 18 W/m 6,4 km/h (2 Bft) 96,23 %
11.04.2019 07:24 0,9 C 0,6 C 0,0 C 84 % 1019,7 hPa 0,0 l/m 0 min 0 min 19 W/m 6,4 km/h (2 Bft) 95,74 %
11.04.2019 07:26 0,9 C 0,6 C 0,0 C 84 % 1019,7 hPa 0,0 l/m 0 min 0 min 19 W/m 3,2 km/h (1 Bft) 93,62 %
11.04.2019 07:28 0,9 C 0,6 C 0,0 C 84 % 1019,7 hPa 0,0 l/m 0 min 0 min 21 W/m 6,4 km/h (2 Bft) 91,49 %
11.04.2019 07:30 0,9 C 0,6 C 0,0 C 84 % 1019,8 hPa 0,0 l/m 0 min 0 min 21 W/m 3,2 km/h (1 Bft) 91,49 %
11.04.2019 07:32 0,9 C 0,6 C 0,0 C 84 % 1019,8 hPa 0,0 l/m 0 min 0 min 22 W/m 3,2 km/h (1 Bft) 95,74 %
11.04.2019 07:34 0,9 C 0,6 C 0,0 C 84 % 1019,8 hPa 0,0 l/m 0 min 0 min 23 W/m 3,2 km/h (1 Bft) 93,62 %
11.04.2019 07:36 0,9 C 0,6 C 0,0 C 84 % 1019,8 hPa 0,0 l/m 0 min 0 min 25 W/m 3,2 km/h (1 Bft) 95,65 %
11.04.2019 07:38 0,9 C 0,6 C 0,0 C 84 % 1019,9 hPa 0,0 l/m 0 min 0 min 25 W/m 9,7 km/h (2 Bft) 95,74 %
11.04.2019 07:40 0,9 C 0,6 C 0,0 C 84 % 1019,8 hPa 0,0 l/m 0 min 0 min 26 W/m 6,4 km/h (2 Bft) 93,62 %
11.04.2019 07:42 0,9 C 0,6 C 0,0 C 84 % 1019,8 hPa 0,0 l/m 0 min 0 min 26 W/m 6,4 km/h (2 Bft) 95,74 %
11.04.2019 07:44 0,9 C 0,6 C 0,0 C 84 % 1019,9 hPa 0,0 l/m 0 min 0 min 27 W/m 3,2 km/h (1 Bft) 93,62 %
11.04.2019 07:46 0,9 C 0,6 C 0,0 C 84 % 1019,9 hPa 0,0 l/m 0 min 0 min 28 W/m 6,4 km/h (2 Bft) 97,87 %
11.04.2019 07:48 0,9 C 0,6 C 0,0 C 84 % 1019,8 hPa 0,0 l/m 0 min 0 min 28 W/m 6,4 km/h (2 Bft) 95,65 %
11.04.2019 07:50 0,9 C 1,1 C 0,0 C 84 % 1019,8 hPa 0,0 l/m 0 min 0 min 30 W/m 6,4 km/h (2 Bft) 97,87 %
11.04.2019 07:52 0,9 C 1,1 C 0,0 C 84 % 1019,9 hPa 0,0 l/m 0 min 0 min 31 W/m 6,4 km/h (2 Bft) 97,87 %
11.04.2019 07:54 1,0 C 1,1 C 0,6 C 85 % 1019,9 hPa 0,0 l/m 0 min 0 min 32 W/m 6,4 km/h (2 Bft) 97,87 %
11.04.2019 07:56 1,0 C 1,1 C 0,6 C 85 % 1019,9 hPa 0,0 l/m 0 min 0 min 32 W/m 6,4 km/h (2 Bft) 95,74 %
11.04.2019 07:58 1,1 C 1,1 C 0,6 C 85 % 1019,9 hPa 0,0 l/m 0 min 0 min 33 W/m 6,4 km/h (2 Bft) 95,74 %
11.04.2019 08:00 1,1 C 1,7 C 0,6 C 85 % 1019,9 hPa 0,0 l/m 0 min 0 min 33 W/m 9,7 km/h (2 Bft) 97,83 %
11.04.2019 08:02 1,1 C 1,7 C 1,1 C 85 % 1020,0 hPa 0,0 l/m 0 min 0 min 35 W/m 6,4 km/h (2 Bft) 97,87 %
11.04.2019 08:04 1,2 C 1,7 C 1,1 C 85 % 1020,0 hPa 0,0 l/m 0 min 0 min 35 W/m 9,7 km/h (2 Bft) 97,87 %
11.04.2019 08:06 1,2 C 2,2 C 1,1 C 85 % 1019,9 hPa 0,0 l/m 0 min 0 min 36 W/m 6,4 km/h (2 Bft) 97,87 %
11.04.2019 08:08 1,3 C 2,2 C 1,1 C 85 % 1019,9 hPa 0,0 l/m 0 min 0 min 37 W/m 6,4 km/h (2 Bft) 97,87 %
11.04.2019 08:10 1,3 C 2,2 C 1,1 C 85 % 1019,9 hPa 0,0 l/m 0 min 0 min 37 W/m 9,7 km/h (2 Bft) 97,87 %
11.04.2019 08:12 1,4 C 2,2 C 1,7 C 85 % 1020,0 hPa 0,0 l/m 0 min 0 min 38 W/m 9,7 km/h (2 Bft) 97,83 %
11.04.2019 08:14 1,4 C 2,2 C 1,7 C 85 % 1020,0 hPa 0,0 l/m 0 min 0 min 39 W/m 9,7 km/h (2 Bft) 95,74 %
11.04.2019 08:16 1,5 C 2,2 C 1,7 C 85 % 1020,0 hPa 0,0 l/m 0 min 0 min 39 W/m 9,7 km/h (2 Bft) 95,74 %
11.04.2019 08:18 1,6 C 2,8 C 1,7 C 85 % 1020,0 hPa 0,0 l/m 0 min 0 min 40 W/m 9,7 km/h (2 Bft) 97,87 %
11.04.2019 08:20 1,7 C 2,8 C 1,7 C 85 % 1020,0 hPa 0,0 l/m 0 min 0 min 40 W/m 9,7 km/h (2 Bft) 97,87 %
11.04.2019 08:22 1,8 C 2,8 C 1,7 C 85 % 1020,1 hPa 0,0 l/m 0 min 0 min 40 W/m 12,9 km/h (3 Bft) 97,87 %
11.04.2019 08:24 1,8 C 2,8 C 1,7 C 85 % 1020,1 hPa 0,0 l/m 0 min 0 min 42 W/m 6,4 km/h (2 Bft) 97,83 %
11.04.2019 08:26 1,9 C 2,8 C 2,2 C 85 % 1020,1 hPa 0,0 l/m 0 min 0 min 42 W/m 9,7 km/h (2 Bft) 100,00 %
11.04.2019 08:28 2,0 C 2,8 C 2,2 C 85 % 1020,1 hPa 0,0 l/m 0 min 0 min 44 W/m 12,9 km/h (3 Bft) 97,87 %
11.04.2019 08:30 2,1 C 2,8 C 2,2 C 84 % 1020,1 hPa 0,0 l/m 0 min 0 min 44 W/m 12,9 km/h (3 Bft) 100,00 %
11.04.2019 08:32 2,2 C 2,8 C 2,2 C 84 % 1020,1 hPa 0,0 l/m 0 min 0 min 45 W/m 9,7 km/h (2 Bft) 100,00 %
11.04.2019 08:34 2,2 C 3,3 C 2,2 C 84 % 1020,1 hPa 0,0 l/m 0 min 0 min 46 W/m 9,7 km/h (2 Bft) 95,65 %
11.04.2019 08:36 2,3 C 3,3 C 2,2 C 84 % 1020,1 hPa 0,0 l/m 0 min 0 min 46 W/m 12,9 km/h (3 Bft) 97,87 %
11.04.2019 08:38 2,4 C 3,3 C 2,2 C 83 % 1020,1 hPa 0,0 l/m 0 min 0 min 47 W/m 9,7 km/h (2 Bft) 100,00 %
11.04.2019 08:40 2,5 C 3,3 C 2,2 C 83 % 1020,2 hPa 0,0 l/m 0 min 0 min 47 W/m 12,9 km/h (3 Bft) 97,87 %
11.04.2019 08:42 2,6 C 3,3 C 2,8 C 82 % 1020,2 hPa 0,0 l/m 0 min 0 min 48 W/m 16,1 km/h (3 Bft) 100,00 %
11.04.2019 08:44 2,7 C 3,3 C 2,8 C 82 % 1020,2 hPa 0,0 l/m 0 min 0 min 49 W/m 12,9 km/h (3 Bft) 97,87 %
11.04.2019 08:46 2,7 C 3,3 C 2,8 C 82 % 1020,1 hPa 0,0 l/m 0 min 0 min 49 W/m 12,9 km/h (3 Bft) 100,00 %
11.04.2019 08:48 2,8 C 3,3 C 2,8 C 81 % 1020,2 hPa 0,0 l/m 0 min 0 min 50 W/m 12,9 km/h (3 Bft) 100,00 %
11.04.2019 08:50 2,9 C 3,9 C 2,8 C 81 % 1020,2 hPa 0,0 l/m 0 min 0 min 51 W/m 12,9 km/h (3 Bft) 100,00 %
11.04.2019 08:52 3,0 C 3,9 C 2,8 C 80 % 1020,3 hPa 0,0 l/m 0 min 0 min 51 W/m 9,7 km/h (2 Bft) 100,00 %
11.04.2019 08:54 3,1 C 3,9 C 2,8 C 80 % 1020,3 hPa 0,0 l/m 0 min 0 min 52 W/m 12,9 km/h (3 Bft) 100,00 %
11.04.2019 08:56 3,2 C 3,9 C 3,3 C 80 % 1020,3 hPa 0,0 l/m 0 min 0 min 53 W/m 12,9 km/h (3 Bft) 100,00 %
11.04.2019 08:58 3,2 C 3,9 C 3,3 C 80 % 1020,3 hPa 0,0 l/m 0 min 0 min 53 W/m 9,7 km/h (2 Bft) 100,00 %
11.04.2019 09:00 3,3 C 4,4 C 3,3 C 79 % 1020,3 hPa 0,0 l/m 0 min 0 min 53 W/m 19,3 km/h (3 Bft) 97,87 %
11.04.2019 09:02 3,4 C 5,0 C 3,3 C 79 % 1020,2 hPa 0,0 l/m 0 min 0 min 54 W/m 12,9 km/h (3 Bft) 95,83 %
11.04.2019 09:04 3,4 C 6,7 C 3,3 C 79 % 1020,3 hPa 0,0 l/m 0 min 0 min 54 W/m 12,9 km/h (3 Bft) 97,87 %
11.04.2019 09:06 3,6 C 8,3 C 3,3 C 79 % 1020,3 hPa 0,0 l/m 0 min 0 min 54 W/m 12,9 km/h (3 Bft) 100,00 %
11.04.2019 09:08 3,7 C 7,8 C 3,3 C 78 % 1020,3 hPa 0,0 l/m 0 min 0 min 54 W/m 16,1 km/h (3 Bft) 97,87 %
11.04.2019 09:10 3,8 C 7,8 C 3,9 C 78 % 1020,3 hPa 0,0 l/m 0 min 0 min 54 W/m 12,9 km/h (3 Bft) 100,00 %
11.04.2019 09:12 3,9 C 8,3 C 3,9 C 78 % 1020,3 hPa 0,0 l/m 0 min 0 min 56 W/m 12,9 km/h (3 Bft) 100,00 %
11.04.2019 09:14 4,0 C 9,4 C 3,9 C 77 % 1020,3 hPa 0,0 l/m 0 min 0 min 56 W/m 12,9 km/h (3 Bft) 100,00 %
11.04.2019 09:16 4,1 C 9,4 C 3,9 C 77 % 1020,3 hPa 0,0 l/m 0 min 0 min 56 W/m 9,7 km/h (2 Bft) 97,87 %
11.04.2019 09:18 4,2 C 10,0 C 3,9 C 77 % 1020,4 hPa 0,0 l/m 0 min 0 min 58 W/m 12,9 km/h (3 Bft) 97,87 %
11.04.2019 09:20 4,4 C 10,0 C 3,9 C 77 % 1020,3 hPa 0,0 l/m 0 min 0 min 58 W/m 12,9 km/h (3 Bft) 95,74 %
11.04.2019 09:22 4,6 C 10,6 C 4,4 C 77 % 1020,4 hPa 0,0 l/m 0 min 0 min 58 W/m 9,7 km/h (2 Bft) 95,65 %
11.04.2019 09:24 4,7 C 10,6 C 4,4 C 76 % 1020,4 hPa 0,0 l/m 0 min 0 min 60 W/m 9,7 km/h (2 Bft) 95,74 %
11.04.2019 09:26 4,9 C 11,1 C 4,4 C 76 % 1020,4 hPa 0,0 l/m 0 min 0 min 60 W/m 12,9 km/h (3 Bft) 91,49 %
11.04.2019 09:28 5,1 C 11,1 C 4,4 C 76 % 1020,4 hPa 0,0 l/m 0 min 0 min 60 W/m 12,9 km/h (3 Bft) 95,74 %
11.04.2019 09:30 5,2 C 11,1 C 5,0 C 75 % 1020,4 hPa 0,0 l/m 0 min 0 min 62 W/m 12,9 km/h (3 Bft) 93,62 %
11.04.2019 09:32 5,4 C 11,1 C 5,0 C 75 % 1020,4 hPa 0,0 l/m 0 min 0 min 62 W/m 16,1 km/h (3 Bft) 97,22 %
11.04.2019 09:34 5,5 C 11,7 C 5,0 C 74 % 1020,4 hPa 0,0 l/m 0 min 0 min 63 W/m 12,9 km/h (3 Bft) 93,62 %
11.04.2019 09:36 5,7 C 11,7 C 5,6 C 73 % 1020,5 hPa 0,0 l/m 0 min 0 min 63 W/m 12,9 km/h (3 Bft) 94,83 %
11.04.2019 09:38 5,8 C 11,7 C 5,6 C 73 % 1020,5 hPa 0,0 l/m 0 min 0 min 64 W/m 9,7 km/h (2 Bft) 97,14 %
11.04.2019 09:40 5,9 C 12,2 C 5,6 C 72 % 1020,4 hPa 0,0 l/m 0 min 0 min 65 W/m 9,7 km/h (2 Bft) 95,74 %
11.04.2019 09:42 6,1 C 12,2 C 6,1 C 72 % 1020,4 hPa 0,0 l/m 0 min 0 min 65 W/m 12,9 km/h (3 Bft) 93,62 %
11.04.2019 09:44 6,2 C 12,2 C 8,3 C 71 % 1020,4 hPa 0,0 l/m 0 min 0 min 65 W/m 12,9 km/h (3 Bft) 95,74 %
11.04.2019 09:46 6,4 C 12,8 C 10,0 C 71 % 1020,5 hPa 0,0 l/m 0 min 0 min 66 W/m 12,9 km/h (3 Bft) 93,62 %
11.04.2019 09:48 6,5 C 12,8 C 11,1 C 71 % 1020,5 hPa 0,0 l/m 0 min 0 min 67 W/m 12,9 km/h (3 Bft) 95,65 %
11.04.2019 09:50 6,6 C 12,8 C 11,7 C 70 % 1020,5 hPa 0,0 l/m 0 min 0 min 69 W/m 9,7 km/h (2 Bft) 97,87 %
11.04.2019 09:52 6,7 C 12,8 C 11,7 C 69 % 1020,4 hPa 0,0 l/m 0 min 0 min 74 W/m 9,7 km/h (2 Bft) 95,74 %
11.04.2019 09:54 6,9 C 13,3 C 12,2 C 70 % 1020,4 hPa 0,0 l/m 0 min 0 min 88 W/m 12,9 km/h (3 Bft) 97,87 %
11.04.2019 09:56 7,0 C 13,9 C 12,8 C 70 % 1020,5 hPa 0,0 l/m 0 min 0 min 108 W/m 9,7 km/h (2 Bft) 97,87 %
11.04.2019 09:58 7,2 C 13,9 C 12,2 C 68 % 1020,5 hPa 0,0 l/m 0 min 0 min 138 W/m 12,9 km/h (3 Bft) 95,65 %
11.04.2019 10:00 7,3 C 13,9 C 12,8 C 68 % 1020,6 hPa 0,0 l/m 0 min 0 min 168 W/m 12,9 km/h (3 Bft) 97,87 %
11.04.2019 10:02 7,4 C 13,9 C 13,3 C 68 % 1020,6 hPa 0,0 l/m 0 min 0 min 220 W/m 19,3 km/h (3 Bft) 97,87 %
11.04.2019 10:04 7,5 C 13,3 C 12,8 C 67 % 1020,5 hPa 0,0 l/m 2 min 0 min 269 W/m 12,9 km/h (3 Bft) 97,87 %
11.04.2019 10:06 7,6 C 13,3 C 12,8 C 66 % 1020,5 hPa 0,0 l/m 2 min 0 min 323 W/m 12,9 km/h (3 Bft) 96,61 %
11.04.2019 10:08 7,7 C 13,9 C 13,3 C 66 % 1020,5 hPa 0,0 l/m 2 min 0 min 374 W/m 9,7 km/h (2 Bft) 100,00 %
11.04.2019 10:10 7,9 C 13,9 C 13,3 C 66 % 1020,6 hPa 0,0 l/m 2 min 0 min 415 W/m 16,1 km/h (3 Bft) 100,00 %
11.04.2019 10:12 7,9 C 14,4 C 13,9 C 65 % 1020,6 hPa 0,0 l/m 2 min 0 min 449 W/m 9,7 km/h (2 Bft) 93,62 %
11.04.2019 10:14 8,1 C 14,4 C 13,9 C 65 % 1020,6 hPa 0,0 l/m 2 min 0 min 477 W/m 16,1 km/h (3 Bft) 97,87 %
11.04.2019 10:16 8,2 C 14,4 C 14,4 C 65 % 1020,6 hPa 0,0 l/m 2 min 0 min 498 W/m 12,9 km/h (3 Bft) 97,87 %
11.04.2019 10:18 8,3 C 15,0 C 14,4 C 65 % 1020,6 hPa 0,0 l/m 2 min 0 min 506 W/m 9,7 km/h (2 Bft) 95,74 %
11.04.2019 10:20 8,4 C 15,6 C 14,4 C 65 % 1020,7 hPa 0,0 l/m 2 min 0 min 513 W/m 12,9 km/h (3 Bft) 95,74 %
11.04.2019 10:22 8,6 C 15,6 C 15,0 C 65 % 1020,6 hPa 0,0 l/m 2 min 0 min 518 W/m 9,7 km/h (2 Bft) 95,65 %
11.04.2019 10:24 8,7 C 15,6 C 15,0 C 64 % 1020,7 hPa 0,0 l/m 2 min 0 min 520 W/m 16,1 km/h (3 Bft) 95,74 %
11.04.2019 10:26 8,8 C 15,6 C 14,4 C 63 % 1020,6 hPa 0,0 l/m 2 min 0 min 526 W/m 12,9 km/h (3 Bft) 95,74 %
11.04.2019 10:28 8,9 C 15,6 C 14,4 C 63 % 1020,6 hPa 0,0 l/m 2 min 0 min 529 W/m 9,7 km/h (2 Bft) 95,74 %
11.04.2019 10:30 8,9 C 15,6 C 15,0 C 63 % 1020,6 hPa 0,0 l/m 2 min 0 min 537 W/m 16,1 km/h (3 Bft) 95,74 %
11.04.2019 10:32 9,1 C 15,6 C 15,6 C 64 % 1020,6 hPa 0,0 l/m 2 min 0 min 542 W/m 12,9 km/h (3 Bft) 95,74 %
11.04.2019 10:34 9,1 C 15,6 C 15,0 C 62 % 1020,6 hPa 0,0 l/m 2 min 0 min 550 W/m 9,7 km/h (2 Bft) 93,48 %
11.04.2019 10:36 9,2 C 15,6 C 15,0 C 62 % 1020,6 hPa 0,0 l/m 2 min 0 min 553 W/m 9,7 km/h (2 Bft) 94,92 %
11.04.2019 10:38 9,3 C 16,1 C 15,6 C 62 % 1020,6 hPa 0,0 l/m 2 min 0 min 559 W/m 19,3 km/h (3 Bft) 97,14 %
11.04.2019 10:40 9,4 C 16,1 C 15,6 C 62 % 1020,7 hPa 0,0 l/m 2 min 0 min 564 W/m 12,9 km/h (3 Bft) 95,74 %
11.04.2019 10:42 9,5 C 16,1 C 15,0 C 62 % 1020,6 hPa 0,0 l/m 2 min 0 min 572 W/m 9,7 km/h (2 Bft) 93,62 %
11.04.2019 10:44 9,6 C 16,1 C 15,6 C 61 % 1020,7 hPa 0,0 l/m 2 min 0 min 576 W/m 9,7 km/h (2 Bft) 91,49 %
11.04.2019 10:46 9,7 C 16,7 C 16,1 C 61 % 1020,6 hPa 0,0 l/m 2 min 0 min 578 W/m 9,7 km/h (2 Bft) 95,65 %
11.04.2019 10:48 9,8 C 16,7 C 16,7 C 61 % 1020,7 hPa 0,0 l/m 2 min 0 min 581 W/m 12,9 km/h (3 Bft) 93,62 %
11.04.2019 10:50 9,9 C 16,7 C 16,1 C 60 % 1020,6 hPa 0,0 l/m 2 min 0 min 587 W/m 16,1 km/h (3 Bft) 95,74 %
11.04.2019 10:52 10,0 C 17,2 C 16,7 C 60 % 1020,6 hPa 0,0 l/m 2 min 0 min 592 W/m 9,7 km/h (2 Bft) 95,74 %
11.04.2019 10:54 10,1 C 17,8 C 17,2 C 60 % 1020,8 hPa 0,0 l/m 2 min 0 min 596 W/m 12,9 km/h (3 Bft) 95,74 %
11.04.2019 10:56 10,2 C 18,3 C 17,8 C 60 % 1020,7 hPa 0,0 l/m 2 min 0 min 600 W/m 9,7 km/h (2 Bft) 95,74 %
11.04.2019 10:58 10,3 C 17,8 C 17,2 C 60 % 1020,7 hPa 0,0 l/m 2 min 0 min 611 W/m 12,9 km/h (3 Bft) 95,65 %
11.04.2019 11:00 10,4 C 17,2 C 17,2 C 59 % 1020,7 hPa 0,0 l/m 2 min 0 min 613 W/m 9,7 km/h (2 Bft) 93,62 %
11.04.2019 11:02 10,6 C 16,7 C 17,2 C 59 % 1020,7 hPa 0,0 l/m 2 min 0 min 618 W/m 12,9 km/h (3 Bft) 95,74 %
11.04.2019 11:04 10,6 C 16,7 C 16,7 C 57 % 1020,7 hPa 0,0 l/m 2 min 0 min 623 W/m 22,5 km/h (4 Bft) 95,74 %
11.04.2019 11:06 10,7 C 16,1 C 16,7 C 57 % 1020,7 hPa 0,0 l/m 2 min 0 min 626 W/m 9,7 km/h (2 Bft) 96,55 %
11.04.2019 11:08 10,7 C 17,2 C 16,7 C 57 % 1020,8 hPa 0,0 l/m 2 min 0 min 629 W/m 12,9 km/h (3 Bft) 100,00 %
11.04.2019 11:10 10,8 C 17,8 C 16,7 C 58 % 1020,7 hPa 0,0 l/m 2 min 0 min 631 W/m 12,9 km/h (3 Bft) 95,65 %
11.04.2019 11:12 10,8 C 17,8 C 16,7 C 58 % 1020,8 hPa 0,0 l/m 2 min 0 min 638 W/m 16,1 km/h (3 Bft) 97,87 %
11.04.2019 11:14 10,9 C 17,2 C 16,7 C 57 % 1020,7 hPa 0,0 l/m 2 min 0 min 641 W/m 9,7 km/h (2 Bft) 95,74 %
11.04.2019 11:16 10,9 C 17,8 C 17,2 C 57 % 1020,7 hPa 0,0 l/m 2 min 0 min 645 W/m 12,9 km/h (3 Bft) 97,87 %
11.04.2019 11:18 11,0 C 17,8 C 17,2 C 57 % 1020,8 hPa 0,0 l/m 2 min 0 min 649 W/m 16,1 km/h (3 Bft) 97,87 %
11.04.2019 11:20 11,1 C 18,3 C 17,2 C 57 % 1020,7 hPa 0,0 l/m 2 min 0 min 650 W/m 16,1 km/h (3 Bft) 95,74 %
11.04.2019 11:22 11,2 C 18,3 C 16,7 C 56 % 1020,7 hPa 0,0 l/m 2 min 0 min 649 W/m 12,9 km/h (3 Bft) 97,83 %
11.04.2019 11:24 11,3 C 18,9 C 17,8 C 58 % 1020,7 hPa 0,0 l/m 2 min 0 min 661 W/m 9,7 km/h (2 Bft) 97,87 %
11.04.2019 11:26 11,4 C 19,4 C 18,3 C 58 % 1020,7 hPa 0,0 l/m 2 min 0 min 666 W/m 9,7 km/h (2 Bft) 97,87 %
11.04.2019 11:28 11,6 C 19,4 C 16,7 C 57 % 1020,7 hPa 0,0 l/m 2 min 0 min 671 W/m 9,7 km/h (2 Bft) 95,74 %
11.04.2019 11:30 11,6 C 18,9 C 14,4 C 55 % 1020,7 hPa 0,0 l/m 2 min 0 min 677 W/m 9,7 km/h (2 Bft) 97,87 %
11.04.2019 11:32 11,7 C 18,9 C 15,0 C 56 % 1020,7 hPa 0,0 l/m 2 min 0 min 675 W/m 9,7 km/h (2 Bft) 95,65 %
11.04.2019 11:34 11,7 C 18,9 C 13,9 C 55 % 1020,7 hPa 0,0 l/m 2 min 0 min 686 W/m 12,9 km/h (3 Bft) 95,74 %
11.04.2019 11:36 11,8 C 19,4 C 13,9 C 56 % 1020,6 hPa 0,0 l/m 2 min 0 min 728 W/m 9,7 km/h (2 Bft) 94,92 %
11.04.2019 11:38 11,8 C 18,9 C 12,8 C 55 % 1020,7 hPa 0,0 l/m 2 min 0 min 750 W/m 19,3 km/h (3 Bft) 91,43 %
11.04.2019 11:40 11,8 C 18,9 C 12,8 C 52 % 1020,7 hPa 0,0 l/m 2 min 0 min 770 W/m 12,9 km/h (3 Bft) 95,74 %
11.04.2019 11:42 11,8 C 15,0 C 11,7 C 51 % 1020,6 hPa 0,0 l/m 2 min 0 min 784 W/m 9,7 km/h (2 Bft) 95,74 %
11.04.2019 11:44 11,7 C 13,3 C 11,7 C 52 % 1020,7 hPa 0,0 l/m 2 min 0 min 583 W/m 12,9 km/h (3 Bft) 93,48 %
11.04.2019 11:46 11,6 C 12,2 C 11,1 C 50 % 1020,7 hPa 0,0 l/m 0 min 0 min 244 W/m 9,7 km/h (2 Bft) 93,62 %
11.04.2019 11:48 11,4 C 12,2 C 11,1 C 49 % 1020,7 hPa 0,0 l/m 0 min 0 min 257 W/m 22,5 km/h (4 Bft) 95,74 %
11.04.2019 11:50 11,4 C 13,9 C 11,7 C 49 % 1020,7 hPa 0,0 l/m 0 min 0 min 286 W/m 19,3 km/h (3 Bft) 95,74 %
11.04.2019 11:52 11,3 C 16,7 C 12,2 C 50 % 1020,7 hPa 0,0 l/m 2 min 0 min 795 W/m 12,9 km/h (3 Bft) 95,74 %
11.04.2019 11:54 11,3 C 18,9 C 12,2 C 51 % 1020,7 hPa 0,0 l/m 2 min 0 min 835 W/m 12,9 km/h (3 Bft) 93,62 %
11.04.2019 11:56 11,3 C 16,7 C 11,7 C 49 % 1020,6 hPa 0,0 l/m 2 min 0 min 817 W/m 16,1 km/h (3 Bft) 95,65 %
11.04.2019 11:58 11,3 C 18,3 C 12,2 C 52 % 1020,7 hPa 0,0 l/m 2 min 0 min 792 W/m 12,9 km/h (3 Bft) 95,74 %
11.04.2019 12:00 11,4 C 17,8 C 12,2 C 53 % 1020,7 hPa 0,0 l/m 2 min 0 min 777 W/m 12,9 km/h (3 Bft) 95,74 %
11.04.2019 12:02 11,4 C 15,6 C 11,7 C 50 % 1020,7 hPa 0,0 l/m 2 min 0 min 572 W/m 12,9 km/h (3 Bft) 93,62 %
11.04.2019 12:04 11,4 C 13,9 C 11,7 C 50 % 1020,6 hPa 0,0 l/m 0 min 0 min 210 W/m 12,9 km/h (3 Bft) 97,87 %
11.04.2019 12:08 11,2 C 12,8 C 10,6 C 49 % 1020,6 hPa 0,0 l/m 0 min 0 min 251 W/m 19,3 km/h (3 Bft) 95,70 %
11.04.2019 12:10 11,1 C 12,2 C 10,6 C 49 % 1020,6 hPa 0,0 l/m 0 min 0 min 179 W/m 9,7 km/h (2 Bft) 95,74 %
11.04.2019 12:12 10,9 C 13,3 C 10,6 C 49 % 1020,6 hPa 0,0 l/m 0 min 0 min 185 W/m 9,7 km/h (2 Bft) 91,49 %
11.04.2019 12:14 10,9 C 15,6 C 11,1 C 52 % 1020,6 hPa 0,0 l/m 0 min 0 min 248 W/m 9,7 km/h (2 Bft) 95,74 %
11.04.2019 12:16 10,9 C 16,1 C 11,1 C 51 % 1020,6 hPa 0,0 l/m 2 min 0 min 807 W/m 6,4 km/h (2 Bft) 95,74 %
11.04.2019 12:18 11,0 C 18,3 C 11,1 C 51 % 1020,6 hPa 0,0 l/m 2 min 0 min 814 W/m 16,1 km/h (3 Bft) 55,56 %
11.04.2019 12:20 11,1 C 17,2 C 11,1 C 51 % 1020,6 hPa 0,0 l/m 2 min 0 min 813 W/m 22,5 km/h (4 Bft) 97,83 %
11.04.2019 12:22 11,2 C 16,7 C 11,1 C 52 % 1020,6 hPa 0,0 l/m 0 min 0 min 280 W/m 12,9 km/h (3 Bft) 95,74 %
11.04.2019 12:24 11,2 C 15,6 C 11,1 C 51 % 1020,6 hPa 0,0 l/m 0 min 0 min 216 W/m 16,1 km/h (3 Bft) 97,87 %
11.04.2019 12:26 11,2 C 16,7 C 11,7 C 51 % 1020,6 hPa 0,0 l/m 2 min 0 min 444 W/m 16,1 km/h (3 Bft) 97,87 %
11.04.2019 12:28 11,2 C 15,0 C 11,7 C 50 % 1020,5 hPa 0,0 l/m 2 min 0 min 828 W/m 19,3 km/h (3 Bft) 95,74 %
11.04.2019 12:30 11,2 C 16,7 C 12,2 C 52 % 1020,5 hPa 0,0 l/m 2 min 0 min 828 W/m 12,9 km/h (3 Bft) 95,65 %
11.04.2019 12:32 11,2 C 15,6 C 11,7 C 51 % 1020,5 hPa 0,0 l/m 2 min 0 min 568 W/m 12,9 km/h (3 Bft) 97,87 %
11.04.2019 12:34 11,2 C 13,9 C 11,7 C 51 % 1020,5 hPa 0,0 l/m 0 min 0 min 233 W/m 16,1 km/h (3 Bft) 97,87 %
11.04.2019 12:36 11,2 C 13,9 C 11,1 C 51 % 1020,5 hPa 0,0 l/m 0 min 0 min 243 W/m 12,9 km/h (3 Bft) 98,11 %
11.04.2019 12:38 11,2 C 16,1 C 11,7 C 53 % 1020,5 hPa 0,0 l/m 2 min 0 min 536 W/m 12,9 km/h (3 Bft) 97,87 %
11.04.2019 12:40 11,3 C 18,3 C 12,8 C 53 % 1020,5 hPa 0,0 l/m 2 min 0 min 857 W/m 12,9 km/h (3 Bft) 97,87 %
11.04.2019 12:42 11,4 C 19,4 C 13,3 C 53 % 1020,6 hPa 0,0 l/m 2 min 0 min 887 W/m 12,9 km/h (3 Bft) 97,83 %
11.04.2019 12:44 11,4 C 17,2 C 13,3 C 51 % 1020,6 hPa 0,0 l/m 2 min 0 min 856 W/m 16,1 km/h (3 Bft) 95,74 %
11.04.2019 12:46 11,5 C 14,4 C 12,2 C 51 % 1020,6 hPa 0,0 l/m 0 min 0 min 214 W/m 16,1 km/h (3 Bft) 97,56 %
11.04.2019 12:48 11,4 C 13,3 C 11,7 C 49 % 1020,7 hPa 0,0 l/m 0 min 0 min 222 W/m 9,7 km/h (2 Bft) 95,74 %
11.04.2019 12:50 11,4 C 13,9 C 11,7 C 51 % 1020,7 hPa 0,0 l/m 0 min 0 min 234 W/m 12,9 km/h (3 Bft) 97,87 %
11.04.2019 12:52 11,4 C 16,1 C 11,7 C 50 % 1020,7 hPa 0,0 l/m 2 min 0 min 432 W/m 9,7 km/h (2 Bft) 95,74 %
11.04.2019 12:54 11,4 C 16,7 C 11,7 C 50 % 1020,7 hPa 0,0 l/m 2 min 0 min 829 W/m 12,9 km/h (3 Bft) 97,83 %
11.04.2019 12:56 11,5 C 18,3 C 12,2 C 51 % 1020,7 hPa 0,0 l/m 2 min 0 min 830 W/m 9,7 km/h (2 Bft) 97,87 %
11.04.2019 12:58 11,6 C 18,9 C 12,2 C 50 % 1020,7 hPa 0,0 l/m 2 min 0 min 834 W/m 9,7 km/h (2 Bft) 97,87 %
11.04.2019 13:00 11,7 C 19,4 C 12,8 C 50 % 1020,7 hPa 0,0 l/m 2 min 0 min 834 W/m 12,9 km/h (3 Bft) 97,87 %
11.04.2019 13:02 11,8 C 20,6 C 13,3 C 51 % 1020,7 hPa 0,0 l/m 2 min 0 min 838 W/m 12,9 km/h (3 Bft) 98,15 %
11.04.2019 13:04 11,9 C 20,0 C 13,3 C 50 % 1020,7 hPa 0,0 l/m 2 min 0 min 845 W/m 12,9 km/h (3 Bft) 97,87 %
11.04.2019 13:06 12,1 C 20,6 C 13,9 C 50 % 1020,7 hPa 0,0 l/m 2 min 0 min 836 W/m 16,1 km/h (3 Bft) 97,83 %
11.04.2019 13:08 12,2 C 20,6 C 13,3 C 50 % 1020,7 hPa 0,0 l/m 2 min 0 min 829 W/m 9,7 km/h (2 Bft) 97,87 %
11.04.2019 13:10 12,3 C 20,0 C 13,3 C 48 % 1020,7 hPa 0,0 l/m 2 min 0 min 825 W/m 12,9 km/h (3 Bft) 97,87 %
11.04.2019 13:12 12,4 C 20,0 C 13,3 C 50 % 1020,7 hPa 0,0 l/m 2 min 0 min 825 W/m 16,1 km/h (3 Bft) 95,74 %
11.04.2019 13:14 12,6 C 20,6 C 13,3 C 48 % 1020,7 hPa 0,0 l/m 2 min 0 min 824 W/m 16,1 km/h (3 Bft) 95,74 %
11.04.2019 13:16 12,7 C 21,1 C 13,9 C 50 % 1020,7 hPa 0,0 l/m 2 min 0 min 834 W/m 12,9 km/h (3 Bft) 97,83 %
11.04.2019 13:18 12,8 C 20,6 C 13,9 C 47 % 1020,7 hPa 0,0 l/m 2 min 0 min 856 W/m 16,1 km/h (3 Bft) 97,87 %
11.04.2019 13:20 12,8 C 20,6 C 14,4 C 48 % 1020,7 hPa 0,0 l/m 2 min 0 min 844 W/m 19,3 km/h (3 Bft) 95,74 %
11.04.2019 13:22 12,9 C 20,6 C 15,0 C 50 % 1020,6 hPa 0,0 l/m 2 min 0 min 827 W/m 16,1 km/h (3 Bft) 97,87 %
11.04.2019 13:24 13,1 C 21,7 C 15,6 C 50 % 1020,7 hPa 0,0 l/m 2 min 0 min 818 W/m 12,9 km/h (3 Bft) 97,87 %
11.04.2019 13:26 13,2 C 20,6 C 16,7 C 49 % 1020,7 hPa 0,0 l/m 2 min 0 min 817 W/m 19,3 km/h (3 Bft) 97,87 %
11.04.2019 13:28 13,2 C 18,9 C 17,8 C 47 % 1020,6 hPa 0,0 l/m 2 min 0 min 842 W/m 12,9 km/h (3 Bft) 95,65 %
11.04.2019 13:30 13,2 C 18,9 C 18,9 C 45 % 1020,7 hPa 0,0 l/m 2 min 0 min 843 W/m 12,9 km/h (3 Bft) 95,74 %
11.04.2019 13:32 13,1 C 18,3 C 19,4 C 46 % 1020,7 hPa 0,0 l/m 2 min 0 min 842 W/m 16,1 km/h (3 Bft) 93,62 %
11.04.2019 13:34 13,0 C 17,2 C 19,4 C 45 % 1020,7 hPa 0,0 l/m 2 min 0 min 837 W/m 22,5 km/h (4 Bft) 95,74 %
11.04.2019 13:36 12,8 C 17,2 C 18,9 C 45 % 1020,7 hPa 0,0 l/m 2 min 0 min 835 W/m 19,3 km/h (3 Bft) 93,62 %
11.04.2019 13:38 12,7 C 18,9 C 20,0 C 48 % 1020,7 hPa 0,0 l/m 2 min 0 min 876 W/m 19,3 km/h (3 Bft) 95,74 %
11.04.2019 13:40 12,8 C 17,8 C 18,9 C 49 % 1020,7 hPa 0,0 l/m 2 min 0 min 900 W/m 25,7 km/h (4 Bft) 93,48 %
11.04.2019 13:42 12,8 C 18,3 C 18,9 C 49 % 1020,7 hPa 0,0 l/m 2 min 0 min 900 W/m 9,7 km/h (2 Bft) 95,74 %
11.04.2019 13:44 12,8 C 19,4 C 20,0 C 47 % 1020,7 hPa 0,0 l/m 2 min 0 min 870 W/m 19,3 km/h (3 Bft) 97,87 %
11.04.2019 13:46 12,9 C 20,0 C 20,6 C 48 % 1020,7 hPa 0,0 l/m 2 min 0 min 890 W/m 19,3 km/h (3 Bft) 97,87 %
11.04.2019 13:48 13,1 C 18,9 C 19,4 C 48 % 1020,7 hPa 0,0 l/m 2 min 0 min 898 W/m 16,1 km/h (3 Bft) 95,74 %
11.04.2019 13:50 13,1 C 17,2 C 17,8 C 47 % 1020,7 hPa 0,0 l/m 2 min 0 min 476 W/m 12,9 km/h (3 Bft) 97,83 %
11.04.2019 13:52 13,1 C 17,2 C 17,8 C 47 % 1020,7 hPa 0,0 l/m 2 min 0 min 501 W/m 16,1 km/h (3 Bft) 95,74 %
11.04.2019 13:54 13,1 C 17,2 C 17,8 C 47 % 1020,8 hPa 0,0 l/m 2 min 0 min 501 W/m 16,1 km/h (3 Bft) 97,87 %
11.04.2019 13:56 13,0 C 18,3 C 18,9 C 46 % 1020,7 hPa 0,0 l/m 2 min 0 min 821 W/m 9,7 km/h (2 Bft) 97,87 %
11.04.2019 13:58 13,0 C 18,9 C 20,6 C 47 % 1020,7 hPa 0,0 l/m 2 min 0 min 842 W/m 12,9 km/h (3 Bft) 97,87 %
11.04.2019 14:00 13,1 C 20,6 C 21,7 C 48 % 1020,6 hPa 0,0 l/m 2 min 0 min 858 W/m 12,9 km/h (3 Bft) 97,87 %
11.04.2019 14:02 13,2 C 21,1 C 21,7 C 49 % 1020,6 hPa 0,0 l/m 2 min 0 min 877 W/m 12,9 km/h (3 Bft) 97,83 %
11.04.2019 14:04 13,3 C 20,0 C 21,1 C 48 % 1020,6 hPa 0,0 l/m 2 min 0 min 879 W/m 12,9 km/h (3 Bft) 97,87 %
11.04.2019 14:06 13,3 C 18,3 C 19,4 C 46 % 1020,6 hPa 0,0 l/m 2 min 0 min 879 W/m 32,2 km/h (5 Bft) 97,87 %
11.04.2019 14:08 13,3 C 18,9 C 19,4 C 46 % 1020,6 hPa 0,0 l/m 2 min 0 min 878 W/m 16,1 km/h (3 Bft) 97,87 %
11.04.2019 14:10 13,2 C 18,9 C 20,0 C 46 % 1020,6 hPa 0,0 l/m 2 min 0 min 861 W/m 22,5 km/h (4 Bft) 97,87 %
11.04.2019 14:12 13,2 C 19,4 C 20,6 C 45 % 1020,6 hPa 0,0 l/m 2 min 0 min 829 W/m 16,1 km/h (3 Bft) 97,87 %
11.04.2019 14:14 13,3 C 20,6 C 21,1 C 46 % 1020,6 hPa 0,0 l/m 2 min 0 min 823 W/m 19,3 km/h (3 Bft) 95,65 %
11.04.2019 14:16 13,4 C 20,6 C 21,7 C 47 % 1020,6 hPa 0,0 l/m 2 min 0 min 829 W/m 16,1 km/h (3 Bft) 95,74 %
11.04.2019 14:18 13,4 C 20,0 C 21,7 C 46 % 1020,6 hPa 0,0 l/m 2 min 0 min 836 W/m 16,1 km/h (3 Bft) 95,74 %
11.04.2019 14:20 13,4 C 18,9 C 20,6 C 45 % 1020,5 hPa 0,0 l/m 2 min 0 min 862 W/m 19,3 km/h (3 Bft) 97,87 %
11.04.2019 14:22 13,5 C 18,9 C 21,1 C 47 % 1020,7 hPa 0,0 l/m 2 min 0 min 869 W/m 22,5 km/h (4 Bft) 97,87 %
11.04.2019 14:24 13,5 C 18,9 C 20,6 C 46 % 1020,7 hPa 0,0 l/m 2 min 0 min 868 W/m 12,9 km/h (3 Bft) 93,62 %
11.04.2019 14:26 13,6 C 20,6 C 21,1 C 48 % 1020,6 hPa 0,0 l/m 2 min 0 min 857 W/m 12,9 km/h (3 Bft) 97,83 %
11.04.2019 14:28 13,7 C 20,6 C 22,2 C 47 % 1020,5 hPa 0,0 l/m 2 min 0 min 833 W/m 16,1 km/h (3 Bft) 95,74 %
11.04.2019 14:30 13,8 C 21,7 C 22,2 C 49 % 1020,6 hPa 0,0 l/m 2 min 0 min 819 W/m 16,1 km/h (3 Bft) 97,87 %
11.04.2019 14:32 13,9 C 20,6 C 21,7 C 47 % 1020,6 hPa 0,0 l/m 2 min 0 min 806 W/m 12,9 km/h (3 Bft) 97,87 %
11.04.2019 14:34 13,9 C 18,9 C 21,1 C 44 % 1020,6 hPa 0,0 l/m 2 min 0 min 786 W/m 9,7 km/h (2 Bft) 95,74 %
11.04.2019 14:36 13,8 C 18,3 C 20,6 C 45 % 1020,5 hPa 0,0 l/m 2 min 0 min 786 W/m 16,1 km/h (3 Bft) 97,87 %
11.04.2019 14:38 13,8 C 18,9 C 21,1 C 46 % 1020,5 hPa 0,0 l/m 2 min 0 min 793 W/m 16,1 km/h (3 Bft) 95,65 %
11.04.2019 14:40 13,7 C 18,3 C 21,1 C 45 % 1020,4 hPa 0,0 l/m 2 min 0 min 794 W/m 22,5 km/h (4 Bft) 95,74 %
11.04.2019 14:42 13,7 C 18,9 C 20,6 C 46 % 1020,4 hPa 0,0 l/m 2 min 0 min 798 W/m 19,3 km/h (3 Bft) 97,87 %
11.04.2019 14:44 13,7 C 20,0 C 21,1 C 48 % 1020,4 hPa 0,0 l/m 2 min 0 min 801 W/m 12,9 km/h (3 Bft) 95,74 %
11.04.2019 14:46 13,8 C 19,4 C 20,6 C 45 % 1020,5 hPa 0,0 l/m 2 min 0 min 756 W/m 19,3 km/h (3 Bft) 97,87 %
11.04.2019 14:48 13,8 C 20,0 C 20,0 C 46 % 1020,5 hPa 0,0 l/m 2 min 0 min 777 W/m 22,5 km/h (4 Bft) 97,87 %
11.04.2019 14:50 13,8 C 19,4 C 18,9 C 46 % 1020,5 hPa 0,0 l/m 2 min 0 min 770 W/m 12,9 km/h (3 Bft) 97,83 %
11.04.2019 14:52 13,8 C 19,4 C 16,7 C 46 % 1020,4 hPa 0,0 l/m 2 min 0 min 769 W/m 12,9 km/h (3 Bft) 97,87 %
11.04.2019 14:54 13,8 C 19,4 C 15,0 C 44 % 1020,4 hPa 0,0 l/m 2 min 0 min 781 W/m 16,1 km/h (3 Bft) 97,87 %
11.04.2019 14:56 13,8 C 18,3 C 15,0 C 45 % 1020,4 hPa 0,0 l/m 2 min 0 min 757 W/m 16,1 km/h (3 Bft) 97,87 %
11.04.2019 14:58 13,7 C 17,2 C 14,4 C 43 % 1020,4 hPa 0,0 l/m 2 min 0 min 742 W/m 12,9 km/h (3 Bft) 100,00 %
11.04.2019 15:00 13,5 C 17,2 C 13,9 C 43 % 1020,4 hPa 0,0 l/m 2 min 0 min 773 W/m 12,9 km/h (3 Bft) 100,00 %
11.04.2019 15:02 13,4 C 18,3 C 13,9 C 44 % 1020,3 hPa 0,0 l/m 2 min 0 min 774 W/m 16,1 km/h (3 Bft) 95,65 %
11.04.2019 15:04 13,4 C 19,4 C 14,4 C 48 % 1020,3 hPa 0,0 l/m 2 min 0 min 779 W/m 12,9 km/h (3 Bft) 100,00 %
11.04.2019 15:06 13,5 C 19,4 C 14,4 C 46 % 1020,3 hPa 0,0 l/m 2 min 0 min 785 W/m 19,3 km/h (3 Bft) 100,00 %
11.04.2019 15:08 13,6 C 20,0 C 14,4 C 46 % 1020,3 hPa 0,0 l/m 2 min 0 min 774 W/m 12,9 km/h (3 Bft) 100,00 %
11.04.2019 15:10 13,6 C 19,4 C 14,4 C 45 % 1020,2 hPa 0,0 l/m 2 min 0 min 775 W/m 16,1 km/h (3 Bft) 100,00 %
11.04.2019 15:12 13,6 C 18,9 C 14,4 C 45 % 1020,2 hPa 0,0 l/m 2 min 0 min 746 W/m 9,7 km/h (2 Bft) 97,83 %
11.04.2019 15:14 13,7 C 18,3 C 14,4 C 46 % 1020,2 hPa 0,0 l/m 2 min 0 min 745 W/m 12,9 km/h (3 Bft) 100,00 %
11.04.2019 15:16 13,6 C 17,8 C 14,4 C 44 % 1020,2 hPa 0,0 l/m 2 min 0 min 769 W/m 22,5 km/h (4 Bft) 100,00 %
11.04.2019 15:18 13,5 C 17,8 C 13,9 C 45 % 1020,1 hPa 0,0 l/m 2 min 0 min 776 W/m 9,7 km/h (2 Bft) 100,00 %
11.04.2019 15:20 13,5 C 17,8 C 13,9 C 46 % 1020,1 hPa 0,0 l/m 2 min 0 min 783 W/m 12,9 km/h (3 Bft) 100,00 %
11.04.2019 15:22 13,6 C 19,4 C 14,4 C 47 % 1020,1 hPa 0,0 l/m 2 min 0 min 770 W/m 9,7 km/h (2 Bft) 97,87 %
11.04.2019 15:24 13,6 C 19,4 C 14,4 C 46 % 1020,2 hPa 0,0 l/m 2 min 0 min 753 W/m 19,3 km/h (3 Bft) 97,83 %
11.04.2019 15:26 13,7 C 19,4 C 14,4 C 46 % 1020,1 hPa 0,0 l/m 2 min 0 min 748 W/m 12,9 km/h (3 Bft) 95,74 %
11.04.2019 15:28 13,8 C 19,4 C 14,4 C 46 % 1020,1 hPa 0,0 l/m 2 min 0 min 741 W/m 19,3 km/h (3 Bft) 100,00 %
11.04.2019 15:30 13,8 C 18,9 C 15,0 C 46 % 1020,1 hPa 0,0 l/m 2 min 0 min 743 W/m 22,5 km/h (4 Bft) 95,74 %
11.04.2019 15:32 13,9 C 19,4 C 15,0 C 46 % 1020,1 hPa 0,0 l/m 2 min 0 min 722 W/m 16,1 km/h (3 Bft) 100,00 %
11.04.2019 15:34 13,9 C 18,9 C 14,4 C 45 % 1020,2 hPa 0,0 l/m 2 min 0 min 717 W/m 12,9 km/h (3 Bft) 100,00 %
11.04.2019 15:36 13,9 C 18,3 C 13,9 C 44 % 1020,1 hPa 0,0 l/m 2 min 0 min 716 W/m 9,7 km/h (2 Bft) 100,00 %
11.04.2019 15:38 13,9 C 18,3 C 13,9 C 44 % 1020,1 hPa 0,0 l/m 2 min 0 min 714 W/m 9,7 km/h (2 Bft) 100,00 %
11.04.2019 15:40 13,9 C 18,9 C 14,4 C 46 % 1020,0 hPa 0,0 l/m 2 min 0 min 732 W/m 9,7 km/h (2 Bft) 100,00 %
11.04.2019 15:42 14,0 C 20,0 C 14,4 C 47 % 1020,2 hPa 0,0 l/m 2 min 0 min 772 W/m 9,7 km/h (2 Bft) 100,00 %
11.04.2019 15:44 14,1 C 19,4 C 15,0 C 46 % 1020,1 hPa 0,0 l/m 2 min 0 min 791 W/m 12,9 km/h (3 Bft) 97,87 %
11.04.2019 15:46 14,2 C 19,4 C 15,0 C 47 % 1020,1 hPa 0,0 l/m 2 min 0 min 785 W/m 16,1 km/h (3 Bft) 97,87 %
11.04.2019 15:48 14,2 C 18,9 C 15,0 C 46 % 1020,1 hPa 0,0 l/m 2 min 0 min 789 W/m 12,9 km/h (3 Bft) 100,00 %
11.04.2019 15:50 14,2 C 16,1 C 14,4 C 45 % 1020,1 hPa 0,0 l/m 2 min 0 min 643 W/m 19,3 km/h (3 Bft) 97,87 %
11.04.2019 15:52 14,1 C 15,6 C 13,9 C 45 % 1020,1 hPa 0,0 l/m 0 min 0 min 292 W/m 12,9 km/h (3 Bft) 100,00 %
11.04.2019 15:54 13,9 C 15,0 C 13,3 C 45 % 1020,2 hPa 0,0 l/m 0 min 0 min 292 W/m 16,1 km/h (3 Bft) 97,87 %
11.04.2019 15:56 13,8 C 14,4 C 12,8 C 45 % 1020,1 hPa 0,0 l/m 0 min 0 min 277 W/m 19,3 km/h (3 Bft) 100,00 %
11.04.2019 15:58 13,6 C 13,3 C 12,8 C 45 % 1020,1 hPa 0,0 l/m 0 min 0 min 240 W/m 19,3 km/h (3 Bft) 100,00 %
11.04.2019 16:00 13,4 C 14,4 C 12,8 C 45 % 1020,1 hPa 0,0 l/m 0 min 0 min 209 W/m 16,1 km/h (3 Bft) 97,83 %
11.04.2019 16:02 13,3 C 15,6 C 12,8 C 46 % 1020,1 hPa 0,0 l/m 2 min 0 min 562 W/m 22,5 km/h (4 Bft) 95,74 %
11.04.2019 16:04 13,2 C 16,7 C 13,3 C 47 % 1020,0 hPa 0,0 l/m 2 min 0 min 666 W/m 9,7 km/h (2 Bft) 100,00 %
11.04.2019 16:06 13,2 C 17,8 C 13,9 C 47 % 1020,0 hPa 0,0 l/m 2 min 0 min 683 W/m 12,9 km/h (3 Bft) 100,00 %
11.04.2019 16:08 13,3 C 17,2 C 15,0 C 47 % 1020,0 hPa 0,0 l/m 2 min 0 min 686 W/m 16,1 km/h (3 Bft) 97,87 %
11.04.2019 16:10 13,3 C 17,2 C 16,7 C 47 % 1020,0 hPa 0,0 l/m 2 min 0 min 667 W/m 16,1 km/h (3 Bft) 97,87 %
11.04.2019 16:12 13,3 C 17,8 C 17,8 C 47 % 1020,0 hPa 0,0 l/m 2 min 0 min 719 W/m 16,1 km/h (3 Bft) 97,83 %
11.04.2019 16:14 13,4 C 18,3 C 17,8 C 47 % 1019,9 hPa 0,0 l/m 2 min 0 min 738 W/m 12,9 km/h (3 Bft) 100,00 %
11.04.2019 16:16 13,4 C 16,1 C 16,1 C 47 % 1019,9 hPa 0,0 l/m 2 min 0 min 513 W/m 12,9 km/h (3 Bft) 97,87 %
11.04.2019 16:18 13,3 C 15,6 C 15,6 C 46 % 1019,8 hPa 0,0 l/m 2 min 0 min 297 W/m 12,9 km/h (3 Bft) 97,87 %
11.04.2019 16:20 13,2 C 14,4 C 14,4 C 47 % 1019,9 hPa 0,0 l/m 2 min 0 min 297 W/m 22,5 km/h (4 Bft) 95,74 %
11.04.2019 16:22 13,1 C 13,9 C 13,3 C 47 % 1019,9 hPa 0,0 l/m 0 min 0 min 244 W/m 12,9 km/h (3 Bft) 95,65 %
11.04.2019 16:24 12,9 C 13,3 C 12,8 C 46 % 1020,0 hPa 0,0 l/m 0 min 0 min 241 W/m 22,5 km/h (4 Bft) 95,74 %
11.04.2019 16:26 12,8 C 14,4 C 13,3 C 47 % 1020,0 hPa 0,0 l/m 2 min 0 min 362 W/m 16,1 km/h (3 Bft) 93,62 %
11.04.2019 16:28 12,8 C 15,6 C 14,4 C 48 % 1019,8 hPa 0,0 l/m 2 min 0 min 585 W/m 16,1 km/h (3 Bft) 95,74 %
11.04.2019 16:30 12,8 C 16,1 C 15,0 C 47 % 1019,8 hPa 0,0 l/m 2 min 0 min 600 W/m 12,9 km/h (3 Bft) 95,74 %
11.04.2019 16:32 12,8 C 16,7 C 16,1 C 49 % 1019,8 hPa 0,0 l/m 2 min 0 min 593 W/m 12,9 km/h (3 Bft) 93,62 %
11.04.2019 16:34 12,9 C 16,7 C 16,7 C 48 % 1019,8 hPa 0,0 l/m 2 min 0 min 588 W/m 16,1 km/h (3 Bft) 95,65 %
11.04.2019 16:36 13,0 C 16,7 C 16,7 C 47 % 1019,8 hPa 0,0 l/m 2 min 0 min 582 W/m 12,9 km/h (3 Bft) 95,74 %
11.04.2019 16:38 13,0 C 16,1 C 16,1 C 47 % 1019,8 hPa 0,0 l/m 2 min 0 min 589 W/m 16,1 km/h (3 Bft) 95,56 %
11.04.2019 16:40 13,1 C 16,7 C 15,6 C 47 % 1019,8 hPa 0,0 l/m 2 min 0 min 589 W/m 16,1 km/h (3 Bft) 95,74 %
11.04.2019 16:42 13,2 C 16,1 C 15,0 C 48 % 1019,8 hPa 0,0 l/m 2 min 0 min 544 W/m 22,5 km/h (4 Bft) 95,74 %
11.04.2019 16:44 13,2 C 16,1 C 13,9 C 47 % 1019,8 hPa 0,0 l/m 2 min 0 min 468 W/m 25,7 km/h (4 Bft) 95,74 %
11.04.2019 16:46 13,2 C 16,1 C 13,9 C 48 % 1019,8 hPa 0,0 l/m 2 min 0 min 513 W/m 12,9 km/h (3 Bft) 95,74 %
11.04.2019 16:48 13,3 C 16,7 C 13,9 C 47 % 1019,7 hPa 0,0 l/m 2 min 0 min 586 W/m 12,9 km/h (3 Bft) 93,62 %
11.04.2019 16:50 13,3 C 14,4 C 13,3 C 45 % 1019,7 hPa 0,0 l/m 2 min 0 min 430 W/m 16,1 km/h (3 Bft) 93,48 %
11.04.2019 16:52 13,3 C 15,0 C 13,9 C 46 % 1019,7 hPa 0,0 l/m 2 min 0 min 414 W/m 9,7 km/h (2 Bft) 93,62 %
11.04.2019 16:54 13,2 C 14,4 C 13,9 C 45 % 1019,7 hPa 0,0 l/m 2 min 0 min 610 W/m 19,3 km/h (3 Bft) 93,62 %
11.04.2019 16:56 13,1 C 13,9 C 14,4 C 46 % 1019,7 hPa 0,0 l/m 2 min 0 min 603 W/m 12,9 km/h (3 Bft) 93,62 %
11.04.2019 16:58 13,1 C 13,9 C 13,9 C 46 % 1019,7 hPa 0,0 l/m 2 min 0 min 307 W/m 9,7 km/h (2 Bft) 93,62 %
11.04.2019 17:00 13,0 C 13,9 C 13,9 C 47 % 1019,7 hPa 0,0 l/m 2 min 0 min 293 W/m 16,1 km/h (3 Bft) 95,74 %
11.04.2019 17:02 12,9 C 12,8 C 13,3 C 46 % 1019,7 hPa 0,0 l/m 0 min 0 min 222 W/m 12,9 km/h (3 Bft) 93,48 %
11.04.2019 17:04 12,8 C 12,2 C 12,2 C 46 % 1019,7 hPa 0,0 l/m 0 min 0 min 184 W/m 12,9 km/h (3 Bft) 89,36 %
11.04.2019 17:06 12,7 C 13,3 C 13,3 C 46 % 1019,8 hPa 0,0 l/m 2 min 0 min 253 W/m 12,9 km/h (3 Bft) 91,49 %
11.04.2019 17:08 12,6 C 14,4 C 14,4 C 47 % 1019,7 hPa 0,0 l/m 2 min 0 min 508 W/m 9,7 km/h (2 Bft) 95,74 %
11.04.2019 17:10 12,6 C 14,4 C 13,9 C 48 % 1019,8 hPa 0,0 l/m 2 min 0 min 527 W/m 12,9 km/h (3 Bft) 95,74 %
11.04.2019 17:12 12,6 C 15,0 C 13,3 C 48 % 1019,7 hPa 0,0 l/m 2 min 0 min 525 W/m 16,1 km/h (3 Bft) 95,74 %
11.04.2019 17:14 12,6 C 15,0 C 13,3 C 48 % 1019,7 hPa 0,0 l/m 2 min 0 min 512 W/m 12,9 km/h (3 Bft) 95,65 %
11.04.2019 17:16 12,6 C 14,4 C 12,8 C 48 % 1019,8 hPa 0,0 l/m 2 min 0 min 367 W/m 9,7 km/h (2 Bft) 93,62 %
11.04.2019 17:18 12,6 C 13,3 C 12,2 C 48 % 1019,7 hPa 0,0 l/m 0 min 0 min 204 W/m 12,9 km/h (3 Bft) 95,74 %
11.04.2019 17:20 12,5 C 12,2 C 11,7 C 47 % 1019,8 hPa 0,0 l/m 0 min 0 min 164 W/m 9,7 km/h (2 Bft) 95,74 %
11.04.2019 17:22 12,4 C 12,2 C 11,7 C 48 % 1019,8 hPa 0,0 l/m 0 min 0 min 192 W/m 16,1 km/h (3 Bft) 95,74 %
11.04.2019 17:24 12,3 C 11,7 C 11,1 C 48 % 1019,8 hPa 0,0 l/m 2 min 0 min 318 W/m 12,9 km/h (3 Bft) 97,87 %
11.04.2019 17:26 12,2 C 12,8 C 11,1 C 47 % 1019,8 hPa 0,0 l/m 2 min 0 min 385 W/m 12,9 km/h (3 Bft) 97,83 %
11.04.2019 17:28 12,1 C 13,3 C 11,7 C 48 % 1019,7 hPa 0,0 l/m 2 min 0 min 452 W/m 9,7 km/h (2 Bft) 97,87 %
11.04.2019 17:30 12,1 C 13,9 C 11,7 C 49 % 1019,7 hPa 0,0 l/m 2 min 0 min 452 W/m 12,9 km/h (3 Bft) 97,87 %
11.04.2019 17:32 12,1 C 13,3 C 11,7 C 48 % 1019,7 hPa 0,0 l/m 2 min 0 min 458 W/m 12,9 km/h (3 Bft) 97,87 %
11.04.2019 17:34 12,1 C 13,3 C 11,7 C 48 % 1019,8 hPa 0,0 l/m 2 min 0 min 448 W/m 16,1 km/h (3 Bft) 95,83 %
11.04.2019 17:36 12,0 C 12,8 C 11,7 C 48 % 1019,8 hPa 0,0 l/m 2 min 0 min 464 W/m 16,1 km/h (3 Bft) 97,87 %
11.04.2019 17:38 11,9 C 13,3 C 11,7 C 48 % 1019,9 hPa 0,0 l/m 2 min 0 min 462 W/m 16,1 km/h (3 Bft) 97,87 %
11.04.2019 17:40 11,9 C 13,9 C 11,7 C 49 % 1019,8 hPa 0,0 l/m 2 min 0 min 459 W/m 16,1 km/h (3 Bft) 100,00 %
11.04.2019 17:42 12,0 C 13,3 C 11,7 C 49 % 1019,9 hPa 0,0 l/m 2 min 0 min 391 W/m 16,1 km/h (3 Bft) 100,00 %
11.04.2019 17:44 12,0 C 13,3 C 11,7 C 48 % 1019,9 hPa 0,0 l/m 2 min 0 min 348 W/m 12,9 km/h (3 Bft) 95,74 %
11.04.2019 17:46 12,0 C 13,3 C 11,7 C 49 % 1019,9 hPa 0,0 l/m 2 min 0 min 418 W/m 16,1 km/h (3 Bft) 100,00 %
11.04.2019 17:48 11,9 C 11,7 C 11,1 C 47 % 1019,9 hPa 0,0 l/m 2 min 0 min 311 W/m 16,1 km/h (3 Bft) 100,00 %
11.04.2019 17:50 11,9 C 11,7 C 10,6 C 48 % 1019,9 hPa 0,0 l/m 0 min 0 min 146 W/m 16,1 km/h (3 Bft) 100,00 %
11.04.2019 17:52 11,8 C 10,6 C 10,6 C 48 % 1020,0 hPa 0,0 l/m 0 min 0 min 110 W/m 16,1 km/h (3 Bft) 100,00 %
11.04.2019 17:54 11,7 C 10,6 C 10,0 C 49 % 1020,0 hPa 0,0 l/m 0 min 0 min 93 W/m 12,9 km/h (3 Bft) 100,00 %
11.04.2019 17:56 11,6 C 10,0 C 10,0 C 48 % 1020,0 hPa 0,0 l/m 0 min 0 min 89 W/m 16,1 km/h (3 Bft) 100,00 %
11.04.2019 17:58 11,5 C 10,0 C 10,0 C 49 % 1020,0 hPa 0,0 l/m 0 min 0 min 93 W/m 12,9 km/h (3 Bft) 100,00 %
11.04.2019 18:00 11,3 C 10,0 C 9,4 C 49 % 1020,0 hPa 0,0 l/m 0 min 0 min 95 W/m 16,1 km/h (3 Bft) 100,00 %
11.04.2019 18:02 11,2 C 10,0 C 9,4 C 49 % 1019,9 hPa 0,0 l/m 0 min 0 min 97 W/m 16,1 km/h (3 Bft) 100,00 %
11.04.2019 18:04 11,1 C 9,4 C 9,4 C 50 % 1020,0 hPa 0,0 l/m 0 min 0 min 97 W/m 12,9 km/h (3 Bft) 100,00 %
11.04.2019 18:07 10,9 C 10,0 C 9,4 C 51 % 1020,0 hPa 0,0 l/m 0 min 0 min 112 W/m 12,9 km/h (3 Bft) 100,00 %
11.04.2019 18:08 10,9 C 10,6 C 9,4 C 50 % 1020,0 hPa 0,0 l/m 1 min 0 min 300 W/m 9,7 km/h (2 Bft) 100,00 %
11.04.2019 18:10 10,8 C 10,6 C 9,4 C 50 % 1020,0 hPa 0,0 l/m 2 min 0 min 296 W/m 16,1 km/h (3 Bft) 100,00 %
11.04.2019 18:12 10,7 C 11,1 C 9,4 C 50 % 1020,0 hPa 0,0 l/m 2 min 0 min 296 W/m 12,9 km/h (3 Bft) 100,00 %
11.04.2019 18:14 10,7 C 11,1 C 9,4 C 50 % 1020,0 hPa 0,0 l/m 2 min 0 min 283 W/m 16,1 km/h (3 Bft) 100,00 %
11.04.2019 18:16 10,7 C 11,1 C 9,4 C 51 % 1020,0 hPa 0,0 l/m 2 min 0 min 290 W/m 12,9 km/h (3 Bft) 100,00 %
11.04.2019 18:18 10,6 C 11,1 C 9,4 C 50 % 1020,0 hPa 0,0 l/m 2 min 0 min 293 W/m 9,7 km/h (2 Bft) 100,00 %
11.04.2019 18:20 10,6 C 10,6 C 9,4 C 50 % 1020,0 hPa 0,0 l/m 2 min 0 min 295 W/m 16,1 km/h (3 Bft) 100,00 %
11.04.2019 18:22 10,6 C 10,6 C 9,4 C 50 % 1020,1 hPa 0,0 l/m 2 min 0 min 277 W/m 19,3 km/h (3 Bft) 100,00 %
11.04.2019 18:24 10,5 C 10,0 C 9,4 C 50 % 1020,1 hPa 0,0 l/m 2 min 0 min 169 W/m 12,9 km/h (3 Bft) 100,00 %
11.04.2019 18:26 10,4 C 10,0 C 9,4 C 50 % 1020,0 hPa 0,0 l/m 0 min 0 min 110 W/m 16,1 km/h (3 Bft) 100,00 %
11.04.2019 18:28 10,4 C 9,4 C 9,4 C 51 % 1020,0 hPa 0,0 l/m 0 min 0 min 107 W/m 16,1 km/h (3 Bft) 100,00 %
11.04.2019 18:30 10,3 C 9,4 C 9,4 C 51 % 1020,0 hPa 0,0 l/m 0 min 0 min 107 W/m 16,1 km/h (3 Bft) 100,00 %
11.04.2019 18:32 10,3 C 9,4 C 9,4 C 51 % 1020,1 hPa 0,0 l/m 0 min 0 min 107 W/m 12,9 km/h (3 Bft) 97,87 %
11.04.2019 18:34 10,2 C 9,4 C 8,9 C 51 % 1020,1 hPa 0,0 l/m 0 min 0 min 109 W/m 12,9 km/h (3 Bft) 100,00 %
11.04.2019 18:36 10,2 C 9,4 C 8,9 C 51 % 1020,1 hPa 0,0 l/m 0 min 0 min 112 W/m 9,7 km/h (2 Bft) 100,00 %
11.04.2019 18:38 10,1 C 9,4 C 8,9 C 51 % 1020,1 hPa 0,0 l/m 0 min 0 min 110 W/m 25,7 km/h (4 Bft) 100,00 %
11.04.2019 18:40 10,1 C 9,4 C 8,9 C 51 % 1020,3 hPa 0,0 l/m 0 min 0 min 100 W/m 22,5 km/h (4 Bft) 97,87 %
11.04.2019 18:42 10,0 C 9,4 C 8,9 C 51 % 1020,2 hPa 0,0 l/m 0 min 0 min 93 W/m 12,9 km/h (3 Bft) 97,83 %
11.04.2019 18:44 10,0 C 9,4 C 8,9 C 51 % 1020,3 hPa 0,0 l/m 0 min 0 min 84 W/m 16,1 km/h (3 Bft) 100,00 %
11.04.2019 18:46 9,9 C 8,9 C 8,9 C 51 % 1020,3 hPa 0,0 l/m 0 min 0 min 77 W/m 12,9 km/h (3 Bft) 100,00 %
11.04.2019 18:48 9,8 C 8,9 C 8,3 C 51 % 1020,3 hPa 0,0 l/m 0 min 0 min 70 W/m 9,7 km/h (2 Bft) 100,00 %
11.04.2019 18:50 9,8 C 8,9 C 8,3 C 51 % 1020,3 hPa 0,0 l/m 0 min 0 min 70 W/m 12,9 km/h (3 Bft) 100,00 %
11.04.2019 18:52 9,7 C 8,9 C 8,3 C 51 % 1020,3 hPa 0,0 l/m 0 min 0 min 67 W/m 12,9 km/h (3 Bft) 97,87 %
11.04.2019 18:54 9,7 C 8,9 C 8,3 C 51 % 1020,3 hPa 0,0 l/m 0 min 0 min 62 W/m 16,1 km/h (3 Bft) 97,83 %
11.04.2019 18:56 9,6 C 8,9 C 8,3 C 52 % 1020,3 hPa 0,0 l/m 0 min 0 min 58 W/m 16,1 km/h (3 Bft) 97,87 %
11.04.2019 18:58 9,6 C 8,9 C 8,3 C 51 % 1020,3 hPa 0,0 l/m 0 min 0 min 54 W/m 9,7 km/h (2 Bft) 100,00 %
11.04.2019 19:00 9,6 C 8,3 C 8,3 C 52 % 1020,3 hPa 0,0 l/m 0 min 0 min 54 W/m 12,9 km/h (3 Bft) 100,00 %
11.04.2019 19:02 9,5 C 8,3 C 8,3 C 51 % 1020,3 hPa 0,0 l/m 0 min 0 min 52 W/m 12,9 km/h (3 Bft) 97,87 %
11.04.2019 19:04 9,4 C 8,3 C 7,8 C 52 % 1020,3 hPa 0,0 l/m 0 min 0 min 51 W/m 9,7 km/h (2 Bft) 95,65 %
11.04.2019 19:06 9,4 C 8,3 C 7,8 C 52 % 1020,3 hPa 0,0 l/m 0 min 0 min 52 W/m 6,4 km/h (2 Bft) 97,87 %
11.04.2019 19:08 9,4 C 8,3 C 7,8 C 52 % 1020,3 hPa 0,0 l/m 0 min 0 min 49 W/m 9,7 km/h (2 Bft) 97,87 %
11.04.2019 19:10 9,3 C 8,3 C 7,8 C 53 % 1020,2 hPa 0,0 l/m 0 min 0 min 49 W/m 9,7 km/h (2 Bft) 97,56 %
11.04.2019 19:12 9,3 C 8,3 C 7,8 C 53 % 1020,2 hPa 0,0 l/m 0 min 0 min 50 W/m 9,7 km/h (2 Bft) 97,87 %
11.04.2019 19:14 9,2 C 8,3 C 7,8 C 54 % 1020,2 hPa 0,0 l/m 0 min 0 min 54 W/m 12,9 km/h (3 Bft) 97,87 %
11.04.2019 19:16 9,2 C 8,3 C 7,8 C 54 % 1020,2 hPa 0,0 l/m 0 min 0 min 58 W/m 9,7 km/h (2 Bft) 97,87 %
11.04.2019 19:18 9,2 C 8,3 C 7,8 C 54 % 1020,2 hPa 0,0 l/m 0 min 0 min 64 W/m 6,4 km/h (2 Bft) 97,87 %
11.04.2019 19:20 9,1 C 8,3 C 7,8 C 54 % 1020,2 hPa 0,0 l/m 0 min 0 min 73 W/m 9,7 km/h (2 Bft) 97,83 %
11.04.2019 19:22 9,1 C 8,3 C 7,8 C 55 % 1020,2 hPa 0,0 l/m 2 min 0 min 74 W/m 16,1 km/h (3 Bft) 95,74 %
11.04.2019 19:24 9,1 C 8,3 C 7,8 C 55 % 1020,3 hPa 0,0 l/m 0 min 0 min 70 W/m 12,9 km/h (3 Bft) 97,87 %
11.04.2019 19:26 9,1 C 8,3 C 7,8 C 55 % 1020,3 hPa 0,0 l/m 0 min 0 min 65 W/m 12,9 km/h (3 Bft) 97,87 %
11.04.2019 19:28 9,0 C 8,3 C 7,8 C 54 % 1020,3 hPa 0,0 l/m 0 min 0 min 57 W/m 12,9 km/h (3 Bft) 97,87 %
11.04.2019 19:30 9,0 C 8,3 C 7,8 C 55 % 1020,4 hPa 0,0 l/m 0 min 0 min 51 W/m 16,1 km/h (3 Bft) 100,00 %
11.04.2019 19:32 8,9 C 8,3 C 7,8 C 54 % 1020,3 hPa 0,0 l/m 0 min 0 min 46 W/m 22,5 km/h (4 Bft) 97,87 %
11.04.2019 19:34 8,9 C 8,3 C 7,8 C 54 % 1020,3 hPa 0,0 l/m 0 min 0 min 41 W/m 16,1 km/h (3 Bft) 97,83 %
11.04.2019 19:36 8,9 C 7,8 C 7,8 C 54 % 1020,4 hPa 0,0 l/m 0 min 0 min 38 W/m 16,1 km/h (3 Bft) 98,31 %
11.04.2019 19:38 8,8 C 7,8 C 7,2 C 54 % 1020,4 hPa 0,0 l/m 0 min 0 min 35 W/m 16,1 km/h (3 Bft) 97,14 %
11.04.2019 19:40 8,8 C 7,8 C 7,2 C 54 % 1020,4 hPa 0,0 l/m 0 min 0 min 31 W/m 16,1 km/h (3 Bft) 95,74 %
11.04.2019 19:42 8,7 C 7,8 C 7,2 C 54 % 1020,4 hPa 0,0 l/m 0 min 0 min 28 W/m 19,3 km/h (3 Bft) 95,74 %
11.04.2019 19:44 8,7 C 7,8 C 7,2 C 54 % 1020,5 hPa 0,0 l/m 0 min 0 min 26 W/m 9,7 km/h (2 Bft) 95,65 %
11.04.2019 19:46 8,7 C 7,2 C 7,2 C 54 % 1020,4 hPa 0,0 l/m 0 min 0 min 25 W/m 12,9 km/h (3 Bft) 95,74 %
11.04.2019 19:48 8,7 C 7,2 C 7,2 C 54 % 1020,5 hPa 0,0 l/m 0 min 0 min 24 W/m 9,7 km/h (2 Bft) 95,74 %
11.04.2019 19:50 8,6 C 7,2 C 6,7 C 54 % 1020,5 hPa 0,0 l/m 0 min 0 min 22 W/m 12,9 km/h (3 Bft) 93,62 %
11.04.2019 19:52 8,5 C 7,2 C 6,7 C 55 % 1020,5 hPa 0,0 l/m 0 min 0 min 20 W/m 6,4 km/h (2 Bft) 95,74 %
11.04.2019 19:54 8,5 C 7,2 C 6,7 C 55 % 1020,6 hPa 0,0 l/m 0 min 0 min 19 W/m 9,7 km/h (2 Bft) 93,62 %
11.04.2019 19:56 8,4 C 7,2 C 6,7 C 55 % 1020,6 hPa 0,0 l/m 0 min 0 min 18 W/m 9,7 km/h (2 Bft) 95,65 %
11.04.2019 19:58 8,4 C 7,2 C 6,7 C 55 % 1020,6 hPa 0,0 l/m 0 min 0 min 16 W/m 12,9 km/h (3 Bft) 95,74 %
11.04.2019 20:00 8,3 C 7,2 C 6,7 C 55 % 1020,5 hPa 0,0 l/m 0 min 0 min 15 W/m 6,4 km/h (2 Bft) 93,62 %
11.04.2019 20:02 8,3 C 7,2 C 6,7 C 56 % 1020,6 hPa 0,0 l/m 0 min 0 min 14 W/m 9,7 km/h (2 Bft) 95,74 %
11.04.2019 20:04 8,2 C 6,7 C 6,7 C 56 % 1020,6 hPa 0,0 l/m 0 min 0 min 12 W/m 9,7 km/h (2 Bft) 95,74 %
11.04.2019 20:06 8,2 C 6,7 C 6,7 C 56 % 1020,5 hPa 0,0 l/m 0 min 0 min 12 W/m 6,4 km/h (2 Bft) 96,55 %
11.04.2019 20:08 8,2 C 6,7 C 6,7 C 56 % 1020,5 hPa 0,0 l/m 0 min 0 min 11 W/m 9,7 km/h (2 Bft) 94,29 %
11.04.2019 20:10 8,1 C 6,7 C 6,7 C 56 % 1020,6 hPa 0,0 l/m 0 min 0 min 10 W/m 6,4 km/h (2 Bft) 94,00 %
11.04.2019 20:12 8,1 C 6,7 C 6,7 C 57 % 1020,6 hPa 0,0 l/m 0 min 0 min 9 W/m 9,7 km/h (2 Bft) 95,74 %
11.04.2019 20:14 8,0 C 6,7 C 6,7 C 57 % 1020,6 hPa 0,0 l/m 0 min 0 min 7 W/m 25,7 km/h (4 Bft) 95,74 %
11.04.2019 20:16 7,9 C 6,7 C 6,7 C 57 % 1020,7 hPa 0,0 l/m 0 min 0 min 7 W/m 9,7 km/h (2 Bft) 93,62 %
11.04.2019 20:18 7,9 C 6,7 C 6,7 C 56 % 1020,7 hPa 0,0 l/m 0 min 0 min 6 W/m 6,4 km/h (2 Bft) 95,65 %
11.04.2019 20:20 7,9 C 6,7 C 6,1 C 57 % 1020,7 hPa 0,0 l/m 0 min 0 min 5 W/m 6,4 km/h (2 Bft) 95,74 %
11.04.2019 20:22 7,8 C 6,7 C 6,1 C 58 % 1020,8 hPa 0,0 l/m 0 min 0 min 5 W/m 6,4 km/h (2 Bft) 95,74 %
11.04.2019 20:24 7,8 C 6,7 C 6,1 C 58 % 1020,8 hPa 0,0 l/m 0 min 0 min 2 W/m 9,7 km/h (2 Bft) 94,29 %
11.04.2019 20:26 7,7 C 6,1 C 6,1 C 57 % 1020,9 hPa 0,0 l/m 0 min 0 min 0 W/m 9,7 km/h (2 Bft) 96,72 %
11.04.2019 20:28 7,7 C 6,1 C 6,1 C 57 % 1020,9 hPa 0,0 l/m 0 min 0 min 0 W/m 9,7 km/h (2 Bft) 95,74 %
11.04.2019 20:30 7,7 C 6,1 C 5,6 C 57 % 1020,9 hPa 0,0 l/m 0 min 0 min 0 W/m 6,4 km/h (2 Bft) 95,74 %
11.04.2019 20:32 7,6 C 6,1 C 5,6 C 58 % 1020,9 hPa 0,0 l/m 0 min 0 min 0 W/m 6,4 km/h (2 Bft) 91,49 %
11.04.2019 20:34 7,6 C 6,1 C 5,6 C 58 % 1020,9 hPa 0,0 l/m 0 min 0 min 0 W/m 6,4 km/h (2 Bft) 93,62 %
11.04.2019 20:36 7,5 C 6,1 C 5,6 C 58 % 1020,9 hPa 0,0 l/m 0 min 0 min 0 W/m 6,4 km/h (2 Bft) 93,62 %
11.04.2019 20:38 7,5 C 6,1 C 5,6 C 58 % 1021,0 hPa 0,0 l/m 0 min 0 min 0 W/m 6,4 km/h (2 Bft) 95,65 %
11.04.2019 20:40 7,4 C 6,1 C 5,6 C 58 % 1021,0 hPa 0,0 l/m 0 min 0 min 0 W/m 6,4 km/h (2 Bft) 97,62 %
11.04.2019 20:42 7,4 C 6,1 C 5,6 C 58 % 1021,1 hPa 0,0 l/m 0 min 0 min 0 W/m 6,4 km/h (2 Bft) 91,30 %
11.04.2019 20:44 7,3 C 6,1 C 5,6 C 58 % 1021,1 hPa 0,0 l/m 0 min 0 min 0 W/m 6,4 km/h (2 Bft) 91,49 %
11.04.2019 20:46 7,3 C 6,1 C 5,6 C 58 % 1021,1 hPa 0,0 l/m 0 min 0 min 0 W/m 6,4 km/h (2 Bft) 97,87 %
11.04.2019 20:48 7,3 C 6,1 C 5,6 C 58 % 1021,1 hPa 0,0 l/m 0 min 0 min 0 W/m 9,7 km/h (2 Bft) 100,00 %
11.04.2019 20:50 7,2 C 5,6 C 5,6 C 59 % 1021,0 hPa 0,0 l/m 0 min 0 min 0 W/m 9,7 km/h (2 Bft) 100,00 %
11.04.2019 20:52 7,2 C 5,6 C 5,0 C 58 % 1021,1 hPa 0,0 l/m 0 min 0 min 0 W/m 12,9 km/h (3 Bft) 95,74 %
11.04.2019 20:54 7,1 C 5,6 C 5,0 C 58 % 1021,1 hPa 0,0 l/m 0 min 0 min 0 W/m 9,7 km/h (2 Bft) 97,83 %
11.04.2019 20:56 7,1 C 5,6 C 5,6 C 58 % 1021,2 hPa 0,0 l/m 0 min 0 min 0 W/m 12,9 km/h (3 Bft) 97,87 %
11.04.2019 20:58 7,1 C 5,6 C 5,6 C 59 % 1021,2 hPa 0,0 l/m 0 min 0 min 0 W/m 12,9 km/h (3 Bft) 97,87 %
11.04.2019 21:00 7,0 C 5,6 C 5,0 C 59 % 1021,2 hPa 0,0 l/m 0 min 0 min 0 W/m 6,4 km/h (2 Bft) 95,74 %
11.04.2019 21:02 6,9 C 5,6 C 5,0 C 59 % 1021,2 hPa 0,0 l/m 0 min 0 min 0 W/m 9,7 km/h (2 Bft) 93,62 %
11.04.2019 21:04 6,9 C 5,6 C 5,0 C 59 % 1021,2 hPa 0,0 l/m 0 min 0 min 0 W/m 9,7 km/h (2 Bft) 95,74 %
11.04.2019 21:06 6,9 C 5,6 C 5,0 C 59 % 1021,3 hPa 0,0 l/m 0 min 0 min 0 W/m 12,9 km/h (3 Bft) 96,55 %
11.04.2019 21:08 6,8 C 5,6 C 5,0 C 59 % 1021,3 hPa 0,0 l/m 0 min 0 min 0 W/m 9,7 km/h (2 Bft) 97,14 %
11.04.2019 21:10 6,8 C 5,6 C 5,0 C 59 % 1021,3 hPa 0,0 l/m 0 min 0 min 0 W/m 9,7 km/h (2 Bft) 97,87 %
11.04.2019 21:12 6,8 C 5,6 C 5,0 C 59 % 1021,3 hPa 0,0 l/m 0 min 0 min 0 W/m 6,4 km/h (2 Bft) 97,87 %
11.04.2019 21:14 6,7 C 5,6 C 5,0 C 59 % 1021,4 hPa 0,0 l/m 0 min 0 min 0 W/m 9,7 km/h (2 Bft) 93,62 %
11.04.2019 21:16 6,7 C 5,6 C 5,0 C 59 % 1021,4 hPa 0,0 l/m 0 min 0 min 0 W/m 9,7 km/h (2 Bft) 97,83 %
11.04.2019 21:18 6,7 C 5,6 C 5,0 C 59 % 1021,4 hPa 0,0 l/m 0 min 0 min 0 W/m 12,9 km/h (3 Bft) 97,87 %
11.04.2019 21:20 6,7 C 5,6 C 5,0 C 59 % 1021,4 hPa 0,0 l/m 0 min 0 min 0 W/m 9,7 km/h (2 Bft) 97,87 %
11.04.2019 21:22 6,6 C 5,6 C 5,0 C 59 % 1021,3 hPa 0,0 l/m 0 min 0 min 0 W/m 9,7 km/h (2 Bft) 97,87 %
11.04.2019 21:24 6,6 C 5,6 C 5,0 C 59 % 1021,4 hPa 0,0 l/m 0 min 0 min 0 W/m 12,9 km/h (3 Bft) 97,87 %
11.04.2019 21:26 6,6 C 5,6 C 5,0 C 59 % 1021,4 hPa 0,0 l/m 0 min 0 min 0 W/m 6,4 km/h (2 Bft) 95,74 %
11.04.2019 21:28 6,6 C 5,6 C 5,0 C 60 % 1021,5 hPa 0,0 l/m 0 min 0 min 0 W/m 6,4 km/h (2 Bft) 100,00 %
11.04.2019 21:30 6,6 C 5,0 C 4,4 C 60 % 1021,5 hPa 0,0 l/m 0 min 0 min 0 W/m 9,7 km/h (2 Bft) 97,87 %
11.04.2019 21:32 6,5 C 5,0 C 4,4 C 60 % 1021,5 hPa 0,0 l/m 0 min 0 min 0 W/m 9,7 km/h (2 Bft) 100,00 %
11.04.2019 21:34 6,4 C 5,0 C 4,4 C 60 % 1021,5 hPa 0,0 l/m 0 min 0 min 0 W/m 9,7 km/h (2 Bft) 100,00 %
11.04.2019 21:36 6,4 C 5,0 C 4,4 C 60 % 1021,5 hPa 0,0 l/m 0 min 0 min 0 W/m 6,4 km/h (2 Bft) 100,00 %
11.04.2019 21:38 6,4 C 5,0 C 4,4 C 60 % 1021,5 hPa 0,0 l/m 0 min 0 min 0 W/m 6,4 km/h (2 Bft) 100,00 %
11.04.2019 21:40 6,4 C 5,0 C 4,4 C 60 % 1021,5 hPa 0,0 l/m 0 min 0 min 0 W/m 6,4 km/h (2 Bft) 95,65 %
11.04.2019 21:42 6,4 C 5,0 C 4,4 C 60 % 1021,6 hPa 0,0 l/m 0 min 0 min 0 W/m 6,4 km/h (2 Bft) 100,00 %
11.04.2019 21:44 6,3 C 5,0 C 4,4 C 61 % 1021,5 hPa 0,0 l/m 0 min 0 min 0 W/m 6,4 km/h (2 Bft) 100,00 %
11.04.2019 21:46 6,3 C 5,0 C 4,4 C 61 % 1021,5 hPa 0,0 l/m 0 min 0 min 0 W/m 6,4 km/h (2 Bft) 95,74 %
11.04.2019 21:48 6,2 C 4,4 C 3,9 C 61 % 1021,5 hPa 0,0 l/m 0 min 0 min 0 W/m 6,4 km/h (2 Bft) 100,00 %
11.04.2019 21:50 6,2 C 4,4 C 3,9 C 61 % 1021,5 hPa 0,0 l/m 0 min 0 min 0 W/m 9,7 km/h (2 Bft) 100,00 %
11.04.2019 21:52 6,1 C 4,4 C 3,9 C 61 % 1021,5 hPa 0,0 l/m 0 min 0 min 0 W/m 9,7 km/h (2 Bft) 100,00 %
11.04.2019 21:54 6,1 C 4,4 C 3,9 C 61 % 1021,5 hPa 0,0 l/m 0 min 0 min 0 W/m 9,7 km/h (2 Bft) 100,00 %
11.04.2019 21:56 6,0 C 5,0 C 4,4 C 61 % 1021,6 hPa 0,0 l/m 0 min 0 min 0 W/m 9,7 km/h (2 Bft) 100,00 %
11.04.2019 21:58 5,9 C 5,0 C 4,4 C 61 % 1021,6 hPa 0,0 l/m 0 min 0 min 0 W/m 9,7 km/h (2 Bft) 97,87 %
11.04.2019 22:00 5,9 C 4,4 C 4,4 C 62 % 1021,6 hPa 0,0 l/m 0 min 0 min 0 W/m 6,4 km/h (2 Bft) 97,87 %
11.04.2019 22:02 5,9 C 4,4 C 3,9 C 61 % 1021,6 hPa 0,0 l/m 0 min 0 min 0 W/m 6,4 km/h (2 Bft) 100,00 %
11.04.2019 22:04 5,8 C 4,4 C 3,9 C 62 % 1021,6 hPa 0,0 l/m 0 min 0 min 0 W/m 9,7 km/h (2 Bft) 100,00 %
11.04.2019 22:06 5,8 C 4,4 C 3,9 C 62 % 1021,6 hPa 0,0 l/m 0 min 0 min 0 W/m 6,4 km/h (2 Bft) 100,00 %
11.04.2019 22:08 5,8 C 4,4 C 3,9 C 62 % 1021,6 hPa 0,0 l/m 0 min 0 min 0 W/m 9,7 km/h (2 Bft) 100,00 %
11.04.2019 22:10 5,7 C 4,4 C 3,9 C 62 % 1021,6 hPa 0,0 l/m 0 min 0 min 0 W/m 6,4 km/h (2 Bft) 100,00 %
11.04.2019 22:12 5,7 C 4,4 C 3,9 C 62 % 1021,6 hPa 0,0 l/m 0 min 0 min 0 W/m 9,7 km/h (2 Bft) 100,00 %
11.04.2019 22:14 5,7 C 4,4 C 3,9 C 62 % 1021,6 hPa 0,0 l/m 0 min 0 min 0 W/m 16,1 km/h (3 Bft) 100,00 %
11.04.2019 22:16 5,6 C 4,4 C 3,9 C 62 % 1021,6 hPa 0,0 l/m 0 min 0 min 0 W/m 9,7 km/h (2 Bft) 100,00 %
11.04.2019 22:18 5,6 C 4,4 C 3,9 C 62 % 1021,6 hPa 0,0 l/m 0 min 0 min 0 W/m 9,7 km/h (2 Bft) 100,00 %
11.04.2019 22:20 5,6 C 4,4 C 3,9 C 62 % 1021,6 hPa 0,0 l/m 0 min 0 min 0 W/m 6,4 km/h (2 Bft) 100,00 %
11.04.2019 22:22 5,5 C 4,4 C 3,9 C 62 % 1021,6 hPa 0,0 l/m 0 min 0 min 0 W/m 9,7 km/h (2 Bft) 100,00 %
11.04.2019 22:24 5,5 C 4,4 C 3,9 C 62 % 1021,6 hPa 0,0 l/m 0 min 0 min 0 W/m 12,9 km/h (3 Bft) 100,00 %
11.04.2019 22:26 5,4 C 4,4 C 3,9 C 63 % 1021,6 hPa 0,0 l/m 0 min 0 min 0 W/m 9,7 km/h (2 Bft) 100,00 %
11.04.2019 22:28 5,4 C 4,4 C 3,9 C 62 % 1021,6 hPa 0,0 l/m 0 min 0 min 0 W/m 9,7 km/h (2 Bft) 100,00 %
11.04.2019 22:30 5,4 C 4,4 C 3,9 C 62 % 1021,6 hPa 0,0 l/m 0 min 0 min 0 W/m 6,4 km/h (2 Bft) 100,00 %
11.04.2019 22:32 5,3 C 4,4 C 3,9 C 62 % 1021,6 hPa 0,0 l/m 0 min 0 min 0 W/m 9,7 km/h (2 Bft) 100,00 %
11.04.2019 22:34 5,3 C 4,4 C 3,9 C 62 % 1021,6 hPa 0,0 l/m 0 min 0 min 0 W/m 6,4 km/h (2 Bft) 97,87 %
11.04.2019 22:36 5,3 C 4,4 C 3,9 C 62 % 1021,6 hPa 0,0 l/m 0 min 0 min 0 W/m 9,7 km/h (2 Bft) 96,55 %
11.04.2019 22:38 5,3 C 4,4 C 3,9 C 62 % 1021,6 hPa 0,0 l/m 0 min 0 min 0 W/m 6,4 km/h (2 Bft) 100,00 %
11.04.2019 22:40 5,3 C 4,4 C 3,9 C 62 % 1021,6 hPa 0,0 l/m 0 min 0 min 0 W/m 9,7 km/h (2 Bft) 97,87 %
11.04.2019 22:42 5,3 C 4,4 C 3,9 C 62 % 1021,6 hPa 0,0 l/m 0 min 0 min 0 W/m 9,7 km/h (2 Bft) 100,00 %
11.04.2019 22:44 5,3 C 4,4 C 3,9 C 62 % 1021,6 hPa 0,0 l/m 0 min 0 min 0 W/m 6,4 km/h (2 Bft) 97,87 %
11.04.2019 22:46 5,2 C 4,4 C 3,9 C 62 % 1021,6 hPa 0,0 l/m 0 min 0 min 0 W/m 6,4 km/h (2 Bft) 97,87 %
11.04.2019 22:48 5,2 C 4,4 C 3,9 C 62 % 1021,6 hPa 0,0 l/m 0 min 0 min 0 W/m 9,7 km/h (2 Bft) 97,87 %
11.04.2019 22:50 5,2 C 4,4 C 3,9 C 62 % 1021,6 hPa 0,0 l/m 0 min 0 min 0 W/m 6,4 km/h (2 Bft) 93,48 %
11.04.2019 22:52 5,2 C 3,9 C 3,3 C 63 % 1021,7 hPa 0,0 l/m 0 min 0 min 0 W/m 6,4 km/h (2 Bft) 97,87 %
11.04.2019 22:54 5,2 C 3,9 C 3,3 C 63 % 1021,7 hPa 0,0 l/m 0 min 0 min 0 W/m 6,4 km/h (2 Bft) 97,87 %
11.04.2019 22:56 5,2 C 3,9 C 3,3 C 63 % 1021,6 hPa 0,0 l/m 0 min 0 min 0 W/m 6,4 km/h (2 Bft) 100,00 %
11.04.2019 22:58 5,2 C 3,9 C 3,3 C 63 % 1021,7 hPa 0,0 l/m 0 min 0 min 0 W/m 6,4 km/h (2 Bft) 95,74 %
11.04.2019 23:00 5,1 C 3,9 C 3,3 C 63 % 1021,7 hPa 0,0 l/m 0 min 0 min 0 W/m 9,7 km/h (2 Bft) 93,62 %
11.04.2019 23:02 5,1 C 3,9 C 3,3 C 63 % 1021,7 hPa 0,0 l/m 0 min 0 min 0 W/m 6,4 km/h (2 Bft) 95,65 %
11.04.2019 23:04 5,1 C 3,9 C 3,3 C 63 % 1021,7 hPa 0,0 l/m 0 min 0 min 0 W/m 6,4 km/h (2 Bft) 93,62 %
11.04.2019 23:06 5,1 C 3,9 C 3,3 C 63 % 1021,8 hPa 0,0 l/m 0 min 0 min 0 W/m 3,2 km/h (1 Bft) 94,92 %
11.04.2019 23:08 5,0 C 3,9 C 3,3 C 63 % 1021,7 hPa 0,0 l/m 0 min 0 min 0 W/m 12,9 km/h (3 Bft) 97,14 %
11.04.2019 23:10 5,0 C 3,9 C 3,3 C 63 % 1021,8 hPa 0,0 l/m 0 min 0 min 0 W/m 6,4 km/h (2 Bft) 93,88 %
11.04.2019 23:12 5,0 C 3,9 C 3,3 C 63 % 1021,7 hPa 0,0 l/m 0 min 0 min 0 W/m 9,7 km/h (2 Bft) 95,65 %
11.04.2019 23:14 4,9 C 3,9 C 3,3 C 63 % 1021,7 hPa 0,0 l/m 0 min 0 min 0 W/m 6,4 km/h (2 Bft) 95,74 %
11.04.2019 23:16 4,9 C 3,9 C 3,3 C 63 % 1021,8 hPa 0,0 l/m 0 min 0 min 0 W/m 6,4 km/h (2 Bft) 95,74 %
11.04.2019 23:18 4,9 C 3,9 C 3,3 C 63 % 1021,8 hPa 0,0 l/m 0 min 0 min 0 W/m 6,4 km/h (2 Bft) 95,74 %
11.04.2019 23:20 4,9 C 3,9 C 3,3 C 63 % 1021,8 hPa 0,0 l/m 0 min 0 min 0 W/m 6,4 km/h (2 Bft) 97,87 %
11.04.2019 23:22 4,9 C 3,9 C 3,3 C 63 % 1021,8 hPa 0,0 l/m 0 min 0 min 0 W/m 6,4 km/h (2 Bft) 97,87 %
11.04.2019 23:24 4,9 C 3,9 C 3,3 C 62 % 1021,8 hPa 0,0 l/m 0 min 0 min 0 W/m 6,4 km/h (2 Bft) 95,65 %
11.04.2019 23:26 4,8 C 3,9 C 3,3 C 63 % 1021,8 hPa 0,0 l/m 0 min 0 min 0 W/m 6,4 km/h (2 Bft) 95,74 %
11.04.2019 23:28 4,8 C 3,9 C 2,8 C 62 % 1021,8 hPa 0,0 l/m 0 min 0 min 0 W/m 6,4 km/h (2 Bft) 97,87 %
11.04.2019 23:30 4,8 C 3,9 C 2,8 C 63 % 1021,8 hPa 0,0 l/m 0 min 0 min 0 W/m 6,4 km/h (2 Bft) 97,87 %
11.04.2019 23:32 4,8 C 3,9 C 2,8 C 63 % 1021,8 hPa 0,0 l/m 0 min 0 min 0 W/m 6,4 km/h (2 Bft) 97,87 %
11.04.2019 23:34 4,8 C 3,3 C 2,8 C 63 % 1021,8 hPa 0,0 l/m 0 min 0 min 0 W/m 3,2 km/h (1 Bft) 97,87 %
11.04.2019 23:36 4,8 C 3,3 C 2,8 C 63 % 1021,8 hPa 0,0 l/m 0 min 0 min 0 W/m 6,4 km/h (2 Bft) 97,83 %
11.04.2019 23:38 4,7 C 3,3 C 2,8 C 63 % 1021,8 hPa 0,0 l/m 0 min 0 min 0 W/m 0,0 km/h (0 Bft) 97,87 %
11.04.2019 23:40 4,7 C 3,3 C 2,8 C 63 % 1021,9 hPa 0,0 l/m 0 min 0 min 0 W/m 6,4 km/h (2 Bft) 97,87 %
11.04.2019 23:42 4,7 C 3,3 C 2,8 C 64 % 1021,9 hPa 0,0 l/m 0 min 0 min 0 W/m 3,2 km/h (1 Bft) 97,87 %
11.04.2019 23:44 4,7 C 3,3 C 2,8 C 63 % 1021,8 hPa 0,0 l/m 0 min 0 min 0 W/m 6,4 km/h (2 Bft) 95,74 %
11.04.2019 23:46 4,7 C 3,3 C 2,8 C 64 % 1021,9 hPa 0,0 l/m 0 min 0 min 0 W/m 3,2 km/h (1 Bft) 97,87 %
11.04.2019 23:48 4,6 C 3,3 C 2,8 C 63 % 1021,9 hPa 0,0 l/m 0 min 0 min 0 W/m 6,4 km/h (2 Bft) 100,00 %
11.04.2019 23:50 4,6 C 3,3 C 2,8 C 63 % 1021,9 hPa 0,0 l/m 0 min 0 min 0 W/m 6,4 km/h (2 Bft) 97,87 %
11.04.2019 23:52 4,6 C 3,3 C 2,8 C 63 % 1021,9 hPa 0,0 l/m 0 min 0 min 0 W/m 6,4 km/h (2 Bft) 95,74 %
11.04.2019 23:54 4,6 C 3,3 C 2,8 C 63 % 1021,9 hPa 0,0 l/m 0 min 0 min 0 W/m 3,2 km/h (1 Bft) 97,87 %
11.04.2019 23:56 4,5 C 3,3 C 2,8 C 63 % 1022,0 hPa 0,0 l/m 0 min 0 min 0 W/m 0,0 km/h (0 Bft) 97,87 %
11.04.2019 23:58 4,5 C 3,3 C 2,8 C 63 % 1021,9 hPa 0,0 l/m 0 min 0 min 0 W/m 6,4 km/h (2 Bft) 97,87 %
_ Min-Zeit 07:10 05:38 05:38 14:58 00:02 - - - - 04:54 12:18
Minimum _ 0,9 C 0,0 C -0,6 C 43 % 1017,6 hPa - - - - 0,0 km/h (0 Bft) 55,56 %
_ Max-Zeit 15:46 13:24 14:28 07:54 23:56 00:00 10:04 00:00 13:40 14:06 01:24
Maximum _ 14,2 C 21,7 C 22,2 C 85 % 1022,0 hPa 0,0 l/m 2 min 0 min 900 W/m 32,2 km/h
W-NW (5 Bft)
100,00 %
Durchschnitt _ 7,1 C 8,3 C 7,2 C 63 % 1019,9 hPa #0,0 l/m #7:09 h #0 min. 378 W/m 10,3 km/h (2 Bft) 97,23 %
© 2019 W. Hausmann